Time,TemperatureF,DewpointF,PressureIn,WindDirection,WindDirectionDegrees,WindSpeedMPH,WindSpeedGustMPH,Humidity,HourlyPrecipIn,Conditions,Clouds,dailyrainin,SoftwareType,DateUTC
2013-02-21 00:00:00,19.9,12.4,29.79,SW,225,1.3,4.2,72,0.00,,,0.00,WUHU21636XXSP,2013-02-21 05:00:00,
2013-02-21 00:05:00,19.9,12.7,29.79,NNW,337,3.1,4.2,73,0.00,,,0.00,WUHU21636XXSP,2013-02-21 05:05:00,
2013-02-21 00:10:00,20.1,12.6,29.80,SSW,202,1.5,7.8,72,0.00,,,0.00,WUHU21636XXSP,2013-02-21 05:10:00,
2013-02-21 00:11:00,20.1,12.6,29.80,SSW,202,0.0,7.8,72,0.00,,,0.00,WUHU21636XXSP,2013-02-21 05:11:00,
2013-02-21 00:15:00,20.1,12.6,29.80,NNW,337,2.9,7.8,72,0.00,,,0.00,WUHU21636XXSP,2013-02-21 05:15:00,
2013-02-21 00:16:00,20.1,12.6,29.80,NNW,337,2.9,7.8,72,0.00,,,0.00,WUHU21636XXSP,2013-02-21 05:16:00,
2013-02-21 00:20:00,20.1,12.6,29.80,West,270,3.1,3.8,72,0.00,,,0.00,WUHU21636XXSP,2013-02-21 05:20:00,
2013-02-21 00:21:00,20.1,12.6,29.80,West,270,3.1,3.8,72,0.00,,,0.00,WUHU21636XXSP,2013-02-21 05:21:00,
2013-02-21 00:25:00,20.1,12.6,29.80,East,90,0.0,3.8,72,0.00,,,0.00,WUHU21636XXSP,2013-02-21 05:25:00,
2013-02-21 00:26:00,20.1,12.6,29.80,NE,45,2.6,3.8,72,0.00,,,0.00,WUHU21636XXSP,2013-02-21 05:26:00,
2013-02-21 00:30:00,20.1,12.6,29.80,SSW,202,0.0,3.1,72,0.00,,,0.00,WUHU21636XXSP,2013-02-21 05:30:00,
2013-02-21 00:31:00,20.1,12.6,29.80,SSW,202,0.0,2.6,72,0.00,,,0.00,WUHU21636XXSP,2013-02-21 05:31:00,
2013-02-21 00:32:00,20.1,12.6,29.80,NW,315,4.0,4.0,72,0.00,,,0.00,WUHU21636XXSP,2013-02-21 05:32:00,
2013-02-21 00:35:00,20.1,12.2,29.81,East,90,3.3,4.0,71,0.00,,,0.00,WUHU21636XXSP,2013-02-21 05:35:00,
2013-02-21 00:36:00,20.1,12.2,29.80,NE,45,0.0,4.0,71,0.00,,,0.00,WUHU21636XXSP,2013-02-21 05:36:00,
2013-02-21 00:37:00,20.1,12.2,29.80,NE,45,0.0,4.0,71,0.00,,,0.00,WUHU21636XXSP,2013-02-21 05:37:00,
2013-02-21 00:40:00,20.1,12.6,29.80,SSW,202,0.0,4.0,72,0.00,,,0.00,WUHU21636XXSP,2013-02-21 05:40:00,
2013-02-21 00:42:00,20.1,12.6,29.80,West,270,1.7,4.0,72,0.00,,,0.00,WUHU21636XXSP,2013-02-21 05:42:00,
2013-02-21 00:45:00,20.1,11.9,29.80,ESE,112,0.0,3.3,70,0.00,,,0.00,WUHU21636XXSP,2013-02-21 05:45:00,
2013-02-21 00:47:00,20.1,12.2,29.80,West,270,0.0,1.7,71,0.00,,,0.00,WUHU21636XXSP,2013-02-21 05:47:00,
2013-02-21 00:50:00,20.1,12.6,29.80,West,270,0.0,1.7,72,0.00,,,0.00,WUHU21636XXSP,2013-02-21 05:50:00,
2013-02-21 00:51:00,19.9,12.4,29.80,SW,225,0.0,1.7,72,0.00,,,0.00,WUHU21636XXSP,2013-02-21 05:51:00,
2013-02-21 00:52:00,19.9,12.4,29.80,SW,225,0.0,0.0,72,0.00,,,0.00,WUHU21636XXSP,2013-02-21 05:52:00,
2013-02-21 00:56:00,19.9,12.4,29.80,NW,315,3.3,3.3,72,0.00,,,0.00,WUHU21636XXSP,2013-02-21 05:56:00,
2013-02-21 00:57:00,19.9,12.4,29.80,NW,315,3.3,3.3,72,0.00,,,0.00,WUHU21636XXSP,2013-02-21 05:57:00,
2013-02-21 00:58:00,19.9,12.1,29.80,NW,315,3.5,3.5,71,0.00,,,0.00,WUHU21636XXSP,2013-02-21 05:58:00,
2013-02-21 01:01:00,19.9,12.4,29.80,SW,225,0.0,3.5,72,0.00,,,0.00,WUHU21636XXSP,2013-02-21 06:01:00,
2013-02-21 01:02:00,19.9,12.4,29.80,SW,225,0.0,3.5,72,0.00,,,0.00,WUHU21636XXSP,2013-02-21 06:02:00,
2013-02-21 01:03:00,19.9,12.4,29.80,WSW,247,0.0,3.5,72,0.00,,,0.00,WUHU21636XXSP,2013-02-21 06:03:00,
2013-02-21 01:06:00,19.9,12.4,29.80,East,90,0.0,3.5,72,0.00,,,0.00,WUHU21636XXSP,2013-02-21 06:06:00,
2013-02-21 01:07:00,19.7,12.5,29.81,West,270,0.0,3.5,73,0.00,,,0.00,WUHU21636XXSP,2013-02-21 06:07:00,
2013-02-21 01:08:00,19.9,12.4,29.80,SSW,202,2.9,3.5,72,0.00,,,0.00,WUHU21636XXSP,2013-02-21 06:08:00,
2013-02-21 01:12:00,19.7,12.2,29.80,West,270,2.0,2.9,72,0.00,,,0.00,WUHU21636XXSP,2013-02-21 06:12:00,
2013-02-21 01:13:00,19.7,12.2,29.80,West,270,0.0,2.9,72,0.00,,,0.00,WUHU21636XXSP,2013-02-21 06:13:00,
2013-02-21 01:17:00,19.7,11.9,29.81,West,270,5.5,6.2,71,0.00,,,0.00,WUHU21636XXSP,2013-02-21 06:17:00,
2013-02-21 01:18:00,19.7,11.9,29.80,SW,225,5.1,6.2,71,0.00,,,0.00,WUHU21636XXSP,2013-02-21 06:18:00,
2013-02-21 01:19:00,19.7,11.5,29.80,NNE,22,2.9,6.2,70,0.00,,,0.00,WUHU21636XXSP,2013-02-21 06:19:00,
2013-02-21 01:22:00,19.7,11.9,29.81,NNE,22,1.7,6.2,71,0.00,,,0.00,WUHU21636XXSP,2013-02-21 06:22:00,
2013-02-21 01:23:00,19.7,11.9,29.81,SW,225,0.0,6.2,71,0.00,,,0.00,WUHU21636XXSP,2013-02-21 06:23:00,
2013-02-21 01:24:00,19.7,11.9,29.80,SW,225,0.0,6.2,71,0.00,,,0.00,WUHU21636XXSP,2013-02-21 06:24:00,
2013-02-21 01:28:00,19.7,11.9,29.81,WNW,292,0.0,2.9,71,0.00,,,0.00,WUHU21636XXSP,2013-02-21 06:28:00,
2013-02-21 01:29:00,19.7,11.9,29.80,WNW,292,0.0,2.9,71,0.00,,,0.00,WUHU21636XXSP,2013-02-21 06:29:00,
2013-02-21 01:33:00,19.7,11.5,29.80,ENE,67,0.0,0.0,70,0.00,,,0.00,WUHU21636XXSP,2013-02-21 06:33:00,
2013-02-21 01:34:00,19.7,11.9,29.80,ESE,112,0.0,0.0,71,0.00,,,0.00,WUHU21636XXSP,2013-02-21 06:34:00,
2013-02-21 01:38:00,19.6,11.8,29.80,WNW,292,0.0,0.0,71,0.00,,,0.00,WUHU21636XXSP,2013-02-21 06:38:00,
2013-02-21 01:39:00,19.6,11.8,29.80,WNW,292,0.0,0.0,71,0.00,,,0.00,WUHU21636XXSP,2013-02-21 06:39:00,
2013-02-21 01:43:00,19.6,11.5,29.80,NE,45,2.9,2.9,70,0.00,,,0.00,WUHU21636XXSP,2013-02-21 06:43:00,
2013-02-21 01:44:00,19.6,11.5,29.80,NE,45,2.9,2.9,70,0.00,,,0.00,WUHU21636XXSP,2013-02-21 06:44:00,
2013-02-21 01:45:00,19.6,11.8,29.80,ENE,67,0.0,2.9,71,0.00,,,0.00,WUHU21636XXSP,2013-02-21 06:45:00,
2013-02-21 01:48:00,19.6,11.5,29.80,NW,315,0.8,2.9,70,0.00,,,0.00,WUHU21636XXSP,2013-02-21 06:48:00,
2013-02-21 01:49:00,19.6,11.5,29.80,NW,315,0.8,2.9,70,0.00,,,0.00,WUHU21636XXSP,2013-02-21 06:49:00,
2013-02-21 01:50:00,19.6,11.5,29.80,NW,315,0.8,2.9,70,0.00,,,0.00,WUHU21636XXSP,2013-02-21 06:50:00,
2013-02-21 01:54:00,19.4,11.3,29.80,NNW,337,0.0,2.9,70,0.00,,,0.00,WUHU21636XXSP,2013-02-21 06:54:00,
2013-02-21 01:55:00,19.4,11.3,29.80,WNW,292,0.0,0.8,70,0.00,,,0.00,WUHU21636XXSP,2013-02-21 06:55:00,
2013-02-21 01:59:00,19.4,11.3,29.80,WNW,292,0.0,0.8,70,0.00,,,0.00,WUHU21636XXSP,2013-02-21 06:59:00,
2013-02-21 02:00:00,19.4,11.3,29.80,WNW,292,3.5,3.5,70,0.00,,,0.00,WUHU21636XXSP,2013-02-21 07:00:00,
2013-02-21 02:04:00,19.4,10.9,29.80,WNW,292,2.9,4.4,69,0.00,,,0.00,WUHU21636XXSP,2013-02-21 07:04:00,
2013-02-21 02:05:00,19.4,10.9,29.80,WNW,292,2.9,4.4,69,0.00,,,0.00,WUHU21636XXSP,2013-02-21 07:05:00,
2013-02-21 02:10:00,19.2,10.7,29.80,North,0,0.0,4.4,69,0.00,,,0.00,WUHU21636XXSP,2013-02-21 07:10:00,
2013-02-21 02:15:00,19.2,11.1,29.80,NNE,22,2.6,4.0,70,0.00,,,0.00,WUHU21636XXSP,2013-02-21 07:15:00,
2013-02-21 02:16:00,19.2,11.1,29.80,NNE,22,2.6,4.0,70,0.00,,,0.00,WUHU21636XXSP,2013-02-21 07:16:00,
2013-02-21 02:20:00,19.2,11.1,29.79,ENE,67,0.0,2.6,70,0.00,,,0.00,WUHU21636XXSP,2013-02-21 07:20:00,
2013-02-21 02:21:00,19.2,11.1,29.80,ENE,67,0.0,2.6,70,0.00,,,0.00,WUHU21636XXSP,2013-02-21 07:21:00,
2013-02-21 02:25:00,19.0,10.9,29.80,NW,315,0.0,2.6,70,0.00,,,0.00,WUHU21636XXSP,2013-02-21 07:25:00,
2013-02-21 02:26:00,19.0,10.9,29.80,NW,315,0.0,0.0,70,0.00,,,0.00,WUHU21636XXSP,2013-02-21 07:26:00,
2013-02-21 02:30:00,19.0,10.9,29.80,SSE,157,0.0,0.0,70,0.00,,,0.00,WUHU21636XXSP,2013-02-21 07:30:00,
2013-02-21 02:31:00,19.0,10.9,29.80,SSE,157,0.0,0.0,70,0.00,,,0.00,WUHU21636XXSP,2013-02-21 07:31:00,
2013-02-21 02:33:00,19.0,11.2,29.80,SSE,157,0.0,0.0,71,0.00,,,0.00,WUHU21636XXSP,2013-02-21 07:33:00,
2013-02-21 02:35:00,19.0,11.2,29.80,SSE,157,0.0,0.0,71,0.00,,,0.00,WUHU21636XXSP,2013-02-21 07:35:00,
2013-02-21 02:36:00,19.0,11.2,29.80,SSE,157,0.0,0.0,71,0.00,,,0.00,WUHU21636XXSP,2013-02-21 07:36:00,
2013-02-21 02:37:00,19.0,11.2,29.80,NE,45,2.9,2.9,71,0.00,,,0.00,WUHU21636XXSP,2013-02-21 07:37:00,
2013-02-21 02:41:00,19.0,11.2,29.80,ESE,112,0.0,2.9,71,0.00,,,0.00,WUHU21636XXSP,2013-02-21 07:41:00,
2013-02-21 02:43:00,19.0,11.2,29.79,SW,225,0.0,2.9,71,0.00,,,0.00,WUHU21636XXSP,2013-02-21 07:43:00,
2013-02-21 02:46:00,19.0,11.2,29.79,WSW,247,0.0,2.9,71,0.00,,,0.00,WUHU21636XXSP,2013-02-21 07:46:00,
2013-02-21 02:48:00,19.0,11.2,29.80,South,180,0.0,0.0,71,0.00,,,0.00,WUHU21636XXSP,2013-02-21 07:48:00,
2013-02-21 02:51:00,18.8,11.0,29.79,SW,225,0.0,0.0,71,0.00,,,0.00,WUHU21636XXSP,2013-02-21 07:51:00,
2013-02-21 02:53:00,18.8,11.0,29.80,West,270,0.0,0.0,71,0.00,,,0.00,WUHU21636XXSP,2013-02-21 07:53:00,
2013-02-21 02:56:00,18.8,11.0,29.79,West,270,0.0,0.0,71,0.00,,,0.00,WUHU21636XXSP,2013-02-21 07:56:00,
2013-02-21 02:59:00,18.8,11.0,29.79,West,270,0.0,0.0,71,0.00,,,0.00,WUHU21636XXSP,2013-02-21 07:59:00,
2013-02-21 03:01:00,18.8,11.0,29.79,NW,315,0.0,0.0,71,0.00,,,0.00,WUHU21636XXSP,2013-02-21 08:01:00,
2013-02-21 03:02:00,18.8,11.0,29.79,NW,315,0.0,0.0,71,0.00,,,0.00,WUHU21636XXSP,2013-02-21 08:02:00,
2013-02-21 03:04:00,18.8,11.3,29.79,NNW,337,0.0,0.0,72,0.00,,,0.00,WUHU21636XXSP,2013-02-21 08:04:00,
2013-02-21 03:06:00,18.7,11.5,29.79,WNW,292,0.0,0.0,73,0.00,,,0.00,WUHU21636XXSP,2013-02-21 08:06:00,
2013-02-21 03:07:00,18.7,11.5,29.79,WNW,292,0.0,0.0,73,0.00,,,0.00,WUHU21636XXSP,2013-02-21 08:07:00,
2013-02-21 03:09:00,18.7,11.5,29.78,NNW,337,0.0,0.0,73,0.00,,,0.00,WUHU21636XXSP,2013-02-21 08:09:00,
2013-02-21 03:11:00,18.7,11.5,29.79,NNW,337,0.0,0.0,73,0.00,,,0.00,WUHU21636XXSP,2013-02-21 08:11:00,
2013-02-21 03:12:00,18.7,11.5,29.79,NNW,337,0.0,0.0,73,0.00,,,0.00,WUHU21636XXSP,2013-02-21 08:12:00,
2013-02-21 03:14:00,18.7,11.5,29.79,NNW,337,0.0,0.0,73,0.00,,,0.00,WUHU21636XXSP,2013-02-21 08:14:00,
2013-02-21 03:17:00,18.5,11.3,29.78,WNW,292,0.0,0.0,73,0.00,,,0.00,WUHU21636XXSP,2013-02-21 08:17:00,
2013-02-21 03:20:00,18.5,11.6,29.79,WNW,292,0.0,0.0,74,0.00,,,0.00,WUHU21636XXSP,2013-02-21 08:20:00,
2013-02-21 03:22:00,18.5,11.6,29.78,WNW,292,0.0,0.0,74,0.00,,,0.00,WUHU21636XXSP,2013-02-21 08:22:00,
2013-02-21 03:23:00,18.5,11.6,29.78,WNW,292,0.0,0.0,74,0.00,,,0.00,WUHU21636XXSP,2013-02-21 08:23:00,
2013-02-21 03:25:00,18.5,11.6,29.78,ESE,112,0.0,0.0,74,0.00,,,0.00,WUHU21636XXSP,2013-02-21 08:25:00,
2013-02-21 03:27:00,18.5,11.6,29.78,WSW,247,0.0,0.0,74,0.00,,,0.00,WUHU21636XXSP,2013-02-21 08:27:00,
2013-02-21 03:28:00,18.3,11.4,29.78,NW,315,0.0,0.0,74,0.00,,,0.00,WUHU21636XXSP,2013-02-21 08:28:00,
2013-02-21 03:30:00,18.1,11.2,29.78,WNW,292,0.0,0.0,74,0.00,,,0.00,WUHU21636XXSP,2013-02-21 08:30:00,
2013-02-21 03:32:00,18.1,11.2,29.78,West,270,0.0,0.0,74,0.00,,,0.00,WUHU21636XXSP,2013-02-21 08:32:00,
2013-02-21 03:33:00,18.1,11.2,29.78,West,270,0.0,0.0,74,0.00,,,0.00,WUHU21636XXSP,2013-02-21 08:33:00,
2013-02-21 03:36:00,18.1,11.5,29.78,SSW,202,0.0,0.0,75,0.00,,,0.00,WUHU21636XXSP,2013-02-21 08:36:00,
2013-02-21 03:38:00,18.1,11.5,29.78,West,270,0.0,0.0,75,0.00,,,0.00,WUHU21636XXSP,2013-02-21 08:38:00,
2013-02-21 03:41:00,18.1,11.8,29.78,West,270,0.0,0.0,76,0.00,,,0.00,WUHU21636XXSP,2013-02-21 08:41:00,
2013-02-21 03:43:00,18.1,11.8,29.78,NW,315,0.0,0.0,76,0.00,,,0.00,WUHU21636XXSP,2013-02-21 08:43:00,
2013-02-21 03:46:00,17.9,11.6,29.77,NW,315,4.6,4.6,76,0.00,,,0.00,WUHU21636XXSP,2013-02-21 08:46:00,
2013-02-21 03:48:00,17.9,11.6,29.77,NW,315,1.5,4.6,76,0.00,,,0.00,WUHU21636XXSP,2013-02-21 08:48:00,
2013-02-21 03:52:00,17.9,11.6,29.77,WSW,247,0.0,4.6,76,0.00,,,0.00,WUHU21636XXSP,2013-02-21 08:52:00,
2013-02-21 03:53:00,17.9,11.6,29.77,West,270,1.7,4.6,76,0.00,,,0.00,WUHU21636XXSP,2013-02-21 08:53:00,
2013-02-21 03:54:00,17.9,11.6,29.77,West,270,1.7,4.6,76,0.00,,,0.00,WUHU21636XXSP,2013-02-21 08:54:00,
2013-02-21 03:57:00,17.8,11.5,29.77,NE,45,0.0,3.8,76,0.00,,,0.00,WUHU21636XXSP,2013-02-21 08:57:00,
2013-02-21 03:58:00,17.8,11.5,29.78,NE,45,0.0,3.8,76,0.00,,,0.00,WUHU21636XXSP,2013-02-21 08:58:00,
2013-02-21 03:59:00,17.8,11.5,29.78,NE,45,0.0,3.8,76,0.00,,,0.00,WUHU21636XXSP,2013-02-21 08:59:00,
2013-02-21 04:02:00,17.8,11.5,29.78,West,270,0.0,1.7,76,0.00,,,0.00,WUHU21636XXSP,2013-02-21 09:02:00,
2013-02-21 04:03:00,17.8,11.5,29.78,NW,315,3.1,3.1,76,0.00,,,0.00,WUHU21636XXSP,2013-02-21 09:03:00,
2013-02-21 04:04:00,17.8,11.5,29.78,NW,315,3.1,3.1,76,0.00,,,0.00,WUHU21636XXSP,2013-02-21 09:04:00,
2013-02-21 04:07:00,17.8,11.5,29.78,NE,45,0.0,3.1,76,0.00,,,0.00,WUHU21636XXSP,2013-02-21 09:07:00,
2013-02-21 04:08:00,17.8,11.8,29.78,NNE,22,1.1,3.1,77,0.00,,,0.00,WUHU21636XXSP,2013-02-21 09:08:00,
2013-02-21 04:09:00,17.8,11.8,29.78,NNE,22,1.1,3.1,77,0.00,,,0.00,WUHU21636XXSP,2013-02-21 09:09:00,
2013-02-21 04:12:00,17.8,11.8,29.78,NE,45,0.0,3.1,77,0.00,,,0.00,WUHU21636XXSP,2013-02-21 09:12:00,
2013-02-21 04:13:00,17.8,11.8,29.78,NW,315,0.0,3.1,77,0.00,,,0.00,WUHU21636XXSP,2013-02-21 09:13:00,
2013-02-21 04:14:00,17.8,11.8,29.78,NW,315,0.0,1.1,77,0.00,,,0.00,WUHU21636XXSP,2013-02-21 09:14:00,
2013-02-21 04:17:00,17.8,11.8,29.78,NW,315,4.0,4.0,77,0.00,,,0.00,WUHU21636XXSP,2013-02-21 09:17:00,
2013-02-21 04:19:00,17.8,11.8,29.78,NW,315,4.0,4.0,77,0.00,,,0.00,WUHU21636XXSP,2013-02-21 09:19:00,
2013-02-21 04:20:00,17.8,11.8,29.78,NNE,22,0.0,4.0,77,0.00,,,0.00,WUHU21636XXSP,2013-02-21 09:20:00,
2013-02-21 04:23:00,17.8,11.8,29.78,NNE,22,2.9,4.0,77,0.00,,,0.00,WUHU21636XXSP,2013-02-21 09:23:00,
2013-02-21 04:24:00,17.8,11.8,29.78,ENE,67,0.0,4.0,77,0.00,,,0.00,WUHU21636XXSP,2013-02-21 09:24:00,
2013-02-21 04:25:00,17.8,11.8,29.78,ENE,67,0.0,4.0,77,0.00,,,0.00,WUHU21636XXSP,2013-02-21 09:25:00,
2013-02-21 04:28:00,17.8,11.8,29.78,West,270,1.7,4.0,77,0.00,,,0.00,WUHU21636XXSP,2013-02-21 09:28:00,
2013-02-21 04:29:00,17.8,11.8,29.78,West,270,1.7,2.9,77,0.00,,,0.00,WUHU21636XXSP,2013-02-21 09:29:00,
2013-02-21 04:30:00,17.8,11.8,29.78,West,270,1.7,2.9,77,0.00,,,0.00,WUHU21636XXSP,2013-02-21 09:30:00,
2013-02-21 04:33:00,17.8,11.5,29.78,West,270,2.4,4.0,76,0.00,,,0.00,WUHU21636XXSP,2013-02-21 09:33:00,
2013-02-21 04:34:00,17.8,11.5,29.78,West,270,2.4,4.0,76,0.00,,,0.00,WUHU21636XXSP,2013-02-21 09:34:00,
2013-02-21 04:35:00,17.8,11.5,29.78,NNW,337,0.0,4.0,76,0.00,,,0.00,WUHU21636XXSP,2013-02-21 09:35:00,
2013-02-21 04:38:00,17.8,11.5,29.78,WNW,292,4.6,4.6,76,0.00,,,0.00,WUHU21636XXSP,2013-02-21 09:38:00,
2013-02-21 04:39:00,17.8,11.5,29.78,NW,315,5.1,5.1,76,0.00,,,0.00,WUHU21636XXSP,2013-02-21 09:39:00,
2013-02-21 04:40:00,17.8,11.5,29.78,NW,315,5.1,5.1,76,0.00,,,0.00,WUHU21636XXSP,2013-02-21 09:40:00,
2013-02-21 04:43:00,17.8,11.5,29.78,West,270,0.0,5.1,76,0.00,,,0.00,WUHU21636XXSP,2013-02-21 09:43:00,
2013-02-21 04:44:00,17.8,11.5,29.78,West,270,0.0,5.1,76,0.00,,,0.00,WUHU21636XXSP,2013-02-21 09:44:00,
2013-02-21 04:45:00,17.8,11.5,29.78,West,270,0.0,5.1,76,0.00,,,0.00,WUHU21636XXSP,2013-02-21 09:45:00,
2013-02-21 04:48:00,17.8,11.5,29.78,West,270,3.1,5.1,76,0.00,,,0.00,WUHU21636XXSP,2013-02-21 09:48:00,
2013-02-21 04:49:00,17.8,11.5,29.78,West,270,3.1,5.1,76,0.00,,,0.00,WUHU21636XXSP,2013-02-21 09:49:00,
2013-02-21 04:50:00,17.8,11.8,29.78,WNW,292,0.0,5.1,77,0.00,,,0.00,WUHU21636XXSP,2013-02-21 09:50:00,
2013-02-21 04:53:00,17.8,11.8,29.78,NNW,337,3.5,3.5,77,0.00,,,0.00,WUHU21636XXSP,2013-02-21 09:53:00,
2013-02-21 04:54:00,17.8,11.8,29.78,NW,315,0.0,3.5,77,0.00,,,0.00,WUHU21636XXSP,2013-02-21 09:54:00,
2013-02-21 04:55:00,17.8,11.8,29.78,NW,315,0.0,3.5,77,0.00,,,0.00,WUHU21636XXSP,2013-02-21 09:55:00,
2013-02-21 04:58:00,17.8,11.8,29.79,SW,225,0.0,3.5,77,0.00,,,0.00,WUHU21636XXSP,2013-02-21 09:58:00,
2013-02-21 04:59:00,17.8,11.8,29.79,SW,225,0.0,3.5,77,0.00,,,0.00,WUHU21636XXSP,2013-02-21 09:59:00,
2013-02-21 05:00:00,17.6,11.6,29.78,WSW,247,1.7,3.5,77,0.00,,,0.00,WUHU21636XXSP,2013-02-21 10:00:00,
2013-02-21 05:01:00,17.6,11.6,29.78,WSW,247,1.7,3.5,77,0.00,,,0.00,WUHU21636XXSP,2013-02-21 10:01:00,
2013-02-21 05:03:00,17.6,11.6,29.79,WNW,292,0.0,1.7,77,0.00,,,0.00,WUHU21636XXSP,2013-02-21 10:03:00,
2013-02-21 05:05:00,17.6,11.9,29.79,NW,315,0.0,1.7,78,0.00,,,0.00,WUHU21636XXSP,2013-02-21 10:05:00,
2013-02-21 05:06:00,17.6,11.9,29.79,NW,315,0.0,1.7,78,0.00,,,0.00,WUHU21636XXSP,2013-02-21 10:06:00,
2013-02-21 05:08:00,17.6,11.9,29.80,ENE,67,1.1,1.7,78,0.00,,,0.00,WUHU21636XXSP,2013-02-21 10:08:00,
2013-02-21 05:10:00,17.6,11.9,29.80,ENE,67,1.1,1.7,78,0.00,,,0.00,WUHU21636XXSP,2013-02-21 10:10:00,
2013-02-21 05:11:00,17.6,11.9,29.80,ENE,67,1.1,1.7,78,0.00,,,0.00,WUHU21636XXSP,2013-02-21 10:11:00,
2013-02-21 05:14:00,17.6,11.9,29.80,NNW,337,1.1,1.1,78,0.00,,,0.00,WUHU21636XXSP,2013-02-21 10:14:00,
2013-02-21 05:15:00,17.6,11.9,29.80,NNW,337,1.1,1.1,78,0.00,,,0.00,WUHU21636XXSP,2013-02-21 10:15:00,
2013-02-21 05:16:00,17.2,11.5,29.80,West,270,0.0,1.1,78,0.00,,,0.00,WUHU21636XXSP,2013-02-21 10:16:00,
2013-02-21 05:17:00,17.2,11.5,29.80,West,270,0.0,1.1,78,0.00,,,0.00,WUHU21636XXSP,2013-02-21 10:17:00,
2013-02-21 05:19:00,17.2,11.5,29.80,WNW,292,4.2,4.2,78,0.00,,,0.00,WUHU21636XXSP,2013-02-21 10:19:00,
2013-02-21 05:20:00,17.2,11.2,29.80,NE,45,0.0,4.2,77,0.00,,,0.00,WUHU21636XXSP,2013-02-21 10:20:00,
2013-02-21 05:21:00,17.2,11.2,29.80,NE,45,0.0,4.2,77,0.00,,,0.00,WUHU21636XXSP,2013-02-21 10:21:00,
2013-02-21 05:22:00,17.2,11.5,29.81,West,270,0.0,4.2,78,0.00,,,0.00,WUHU21636XXSP,2013-02-21 10:22:00,
2013-02-21 05:24:00,17.2,11.5,29.81,NNE,22,0.0,4.2,78,0.00,,,0.00,WUHU21636XXSP,2013-02-21 10:24:00,
2013-02-21 05:25:00,17.2,11.5,29.81,NNE,22,0.0,4.2,78,0.00,,,0.00,WUHU21636XXSP,2013-02-21 10:25:00,
2013-02-21 05:26:00,17.0,11.3,29.81,NE,45,0.0,4.2,78,0.00,,,0.00,WUHU21636XXSP,2013-02-21 10:26:00,
2013-02-21 05:27:00,17.0,11.3,29.81,NE,45,0.0,4.2,78,0.00,,,0.00,WUHU21636XXSP,2013-02-21 10:27:00,
2013-02-21 05:30:00,17.0,11.3,29.80,ENE,67,0.0,0.0,78,0.00,,,0.00,WUHU21636XXSP,2013-02-21 10:30:00,
2013-02-21 05:31:00,17.0,11.3,29.80,NE,45,2.9,2.9,78,0.00,,,0.00,WUHU21636XXSP,2013-02-21 10:31:00,
2013-02-21 05:32:00,17.0,11.3,29.80,NE,45,2.9,2.9,78,0.00,,,0.00,WUHU21636XXSP,2013-02-21 10:32:00,
2013-02-21 05:35:00,17.0,11.1,29.81,NNW,337,0.0,2.9,77,0.00,,,0.00,WUHU21636XXSP,2013-02-21 10:35:00,
2013-02-21 05:36:00,17.0,11.1,29.81,NNW,337,0.0,2.9,77,0.00,,,0.00,WUHU21636XXSP,2013-02-21 10:36:00,
2013-02-21 05:37:00,17.0,11.1,29.81,NE,45,0.0,2.9,77,0.00,,,0.00,WUHU21636XXSP,2013-02-21 10:37:00,
2013-02-21 05:40:00,17.0,11.1,29.81,NW,315,0.0,2.9,77,0.00,,,0.00,WUHU21636XXSP,2013-02-21 10:40:00,
2013-02-21 05:41:00,17.0,11.1,29.81,NW,315,0.0,2.9,77,0.00,,,0.00,WUHU21636XXSP,2013-02-21 10:41:00,
2013-02-21 05:42:00,17.0,11.1,29.81,NW,315,0.0,0.0,77,0.00,,,0.00,WUHU21636XXSP,2013-02-21 10:42:00,
2013-02-21 05:45:00,17.0,10.8,29.82,WNW,292,1.5,1.5,76,0.00,,,0.00,WUHU21636XXSP,2013-02-21 10:45:00,
2013-02-21 05:46:00,17.0,10.8,29.82,NE,45,0.0,1.5,76,0.00,,,0.00,WUHU21636XXSP,2013-02-21 10:46:00,
2013-02-21 05:48:00,17.0,10.8,29.82,NE,45,0.0,1.5,76,0.00,,,0.00,WUHU21636XXSP,2013-02-21 10:48:00,
2013-02-21 05:50:00,17.0,10.8,29.82,NNE,22,0.0,1.5,76,0.00,,,0.00,WUHU21636XXSP,2013-02-21 10:50:00,
2013-02-21 05:51:00,17.0,10.8,29.82,NNE,22,0.0,1.5,76,0.00,,,0.00,WUHU21636XXSP,2013-02-21 10:51:00,
2013-02-21 05:52:00,17.0,10.8,29.82,NNE,22,0.0,1.5,76,0.00,,,0.00,WUHU21636XXSP,2013-02-21 10:52:00,
2013-02-21 05:53:00,17.0,10.8,29.82,SW,225,0.0,1.5,76,0.00,,,0.00,WUHU21636XXSP,2013-02-21 10:53:00,
2013-02-21 05:55:00,17.0,10.8,29.82,NW,315,0.0,0.0,76,0.00,,,0.00,WUHU21636XXSP,2013-02-21 10:55:00,
2013-02-21 05:56:00,17.0,10.8,29.82,NW,315,0.0,0.0,76,0.00,,,0.00,WUHU21636XXSP,2013-02-21 10:56:00,
2013-02-21 05:57:00,17.0,10.5,29.82,WNW,292,3.3,3.3,75,0.00,,,0.00,WUHU21636XXSP,2013-02-21 10:57:00,
2013-02-21 05:58:00,17.0,10.5,29.82,WNW,292,3.3,3.3,75,0.00,,,0.00,WUHU21636XXSP,2013-02-21 10:58:00,
2013-02-21 06:00:00,17.0,10.8,29.82,WSW,247,3.3,3.3,76,0.00,,,0.00,WUHU21636XXSP,2013-02-21 11:00:00,
2013-02-21 06:01:00,17.0,10.5,29.82,SW,225,2.2,3.3,75,0.00,,,0.00,WUHU21636XXSP,2013-02-21 11:01:00,
2013-02-21 06:02:00,17.0,10.5,29.82,SW,225,2.2,3.3,75,0.00,,,0.00,WUHU21636XXSP,2013-02-21 11:02:00,
2013-02-21 06:03:00,17.0,10.5,29.81,West,270,3.1,3.3,75,0.00,,,0.00,WUHU21636XXSP,2013-02-21 11:03:00,
2013-02-21 06:05:00,17.0,10.5,29.81,West,270,0.0,3.3,75,0.00,,,0.00,WUHU21636XXSP,2013-02-21 11:05:00,
2013-02-21 06:07:00,16.9,10.4,29.82,West,270,3.5,3.5,75,0.00,,,0.00,WUHU21636XXSP,2013-02-21 11:07:00,
2013-02-21 06:09:00,16.9,10.4,29.81,NW,315,2.4,3.5,75,0.00,,,0.00,WUHU21636XXSP,2013-02-21 11:09:00,
2013-02-21 06:10:00,16.9,10.4,29.81,NW,315,2.4,3.5,75,0.00,,,0.00,WUHU21636XXSP,2013-02-21 11:10:00,
2013-02-21 06:12:00,16.7,10.2,29.81,WSW,247,4.4,4.4,75,0.00,,,0.00,WUHU21636XXSP,2013-02-21 11:12:00,
2013-02-21 06:14:00,16.7,10.2,29.81,WSW,247,3.5,4.4,75,0.00,,,0.00,WUHU21636XXSP,2013-02-21 11:14:00,
2013-02-21 06:15:00,16.7,10.2,29.81,WSW,247,3.5,4.4,75,0.00,,,0.00,WUHU21636XXSP,2013-02-21 11:15:00,
2013-02-21 06:17:00,16.7,10.2,29.81,WSW,247,3.5,4.4,75,0.00,,,0.00,WUHU21636XXSP,2013-02-21 11:17:00,
2013-02-21 06:18:00,16.7,10.2,29.81,WNW,292,0.0,4.4,75,0.00,,,0.00,WUHU21636XXSP,2013-02-21 11:18:00,
2013-02-21 06:20:00,16.7,10.2,29.81,West,270,0.0,4.4,75,0.00,,,0.00,WUHU21636XXSP,2013-02-21 11:20:00,
2013-02-21 06:22:00,16.7,10.2,29.81,WNW,292,0.0,4.4,75,0.00,,,0.00,WUHU21636XXSP,2013-02-21 11:22:00,
2013-02-21 06:23:00,16.7,10.2,29.81,WNW,292,0.0,3.5,75,0.00,,,0.00,WUHU21636XXSP,2013-02-21 11:23:00,
2013-02-21 06:25:00,16.7,9.9,29.82,WNW,292,4.4,7.3,74,0.00,,,0.00,WUHU21636XXSP,2013-02-21 11:25:00,
2013-02-21 06:27:00,16.7,9.9,29.82,WNW,292,0.0,7.3,74,0.00,,,0.00,WUHU21636XXSP,2013-02-21 11:27:00,
2013-02-21 06:28:00,16.7,9.9,29.82,WNW,292,0.0,7.3,74,0.00,,,0.00,WUHU21636XXSP,2013-02-21 11:28:00,
2013-02-21 06:30:00,16.7,9.9,29.82,NW,315,2.4,7.3,74,0.00,,,0.00,WUHU21636XXSP,2013-02-21 11:30:00,
2013-02-21 06:31:00,16.7,9.9,29.82,NW,315,2.4,7.3,74,0.00,,,0.00,WUHU21636XXSP,2013-02-21 11:31:00,
2013-02-21 06:32:00,16.7,9.9,29.82,West,270,3.1,7.3,74,0.00,,,0.00,WUHU21636XXSP,2013-02-21 11:32:00,
2013-02-21 06:33:00,16.7,9.9,29.82,NNW,337,0.0,7.3,74,0.00,,,0.00,WUHU21636XXSP,2013-02-21 11:33:00,
2013-02-21 06:35:00,16.7,9.6,29.82,North,0,0.0,4.4,73,0.00,,,0.00,WUHU21636XXSP,2013-02-21 11:35:00,
2013-02-21 06:36:00,16.7,9.6,29.82,North,0,0.0,4.4,73,0.00,,,0.00,WUHU21636XXSP,2013-02-21 11:36:00,
2013-02-21 06:37:00,16.7,9.6,29.82,North,0,0.0,3.1,73,0.00,,,0.00,WUHU21636XXSP,2013-02-21 11:37:00,
2013-02-21 06:38:00,16.7,9.6,29.83,West,270,2.6,3.1,73,0.00,,,0.00,WUHU21636XXSP,2013-02-21 11:38:00,
2013-02-21 06:41:00,16.7,9.3,29.83,SSW,202,0.0,3.1,72,0.00,,,0.00,WUHU21636XXSP,2013-02-21 11:41:00,
2013-02-21 06:43:00,16.7,9.6,29.82,WNW,292,3.1,3.1,73,0.00,,,0.00,WUHU21636XXSP,2013-02-21 11:43:00,
2013-02-21 06:46:00,16.5,9.4,29.82,WNW,292,4.4,4.4,73,0.00,,,0.00,WUHU21636XXSP,2013-02-21 11:46:00,
2013-02-21 06:48:00,16.5,9.4,29.82,WNW,292,4.4,4.4,73,0.00,,,0.00,WUHU21636XXSP,2013-02-21 11:48:00,
2013-02-21 06:51:00,16.5,9.4,29.83,West,270,0.0,4.6,73,0.00,,,0.00,WUHU21636XXSP,2013-02-21 11:51:00,
2013-02-21 06:52:00,16.5,9.4,29.82,West,270,0.0,4.6,73,0.00,,,0.00,WUHU21636XXSP,2013-02-21 11:52:00,
2013-02-21 06:53:00,16.5,9.1,29.83,WSW,247,0.0,4.6,72,0.00,,,0.00,WUHU21636XXSP,2013-02-21 11:53:00,
2013-02-21 06:56:00,16.5,9.4,29.83,WSW,247,0.0,4.6,73,0.00,,,0.00,WUHU21636XXSP,2013-02-21 11:56:00,
2013-02-21 06:57:00,16.5,9.1,29.83,WSW,247,3.1,4.6,72,0.00,,,0.00,WUHU21636XXSP,2013-02-21 11:57:00,
2013-02-21 06:58:00,16.5,9.1,29.83,WSW,247,3.1,4.6,72,0.00,,,0.00,WUHU21636XXSP,2013-02-21 11:58:00,
2013-02-21 06:59:00,16.5,9.1,29.83,WSW,247,3.1,4.6,72,0.00,,,0.00,WUHU21636XXSP,2013-02-21 11:59:00,
2013-02-21 07:01:00,16.5,9.1,29.83,WSW,247,0.0,4.6,72,0.00,,,0.00,WUHU21636XXSP,2013-02-21 12:01:00,
2013-02-21 07:02:00,16.5,9.1,29.84,WSW,247,0.0,4.6,72,0.00,,,0.00,WUHU21636XXSP,2013-02-21 12:02:00,
2013-02-21 07:03:00,16.5,9.1,29.83,West,270,0.0,4.6,72,0.00,,,0.00,WUHU21636XXSP,2013-02-21 12:03:00,
2013-02-21 07:04:00,16.5,9.1,29.83,West,270,0.0,4.6,72,0.00,,,0.00,WUHU21636XXSP,2013-02-21 12:04:00,
2013-02-21 07:06:00,16.5,8.8,29.83,NW,315,4.0,4.6,71,0.00,,,0.00,WUHU21636XXSP,2013-02-21 12:06:00,
2013-02-21 07:07:00,16.5,8.8,29.83,NW,315,4.0,4.6,71,0.00,,,0.00,WUHU21636XXSP,2013-02-21 12:07:00,
2013-02-21 07:08:00,16.5,8.8,29.83,West,270,4.4,4.6,71,0.00,,,0.00,WUHU21636XXSP,2013-02-21 12:08:00,
2013-02-21 07:09:00,16.5,8.8,29.83,West,270,4.4,4.6,71,0.00,,,0.00,WUHU21636XXSP,2013-02-21 12:09:00,
2013-02-21 07:11:00,16.5,8.5,29.83,West,270,0.0,4.4,70,0.00,,,0.00,WUHU21636XXSP,2013-02-21 12:11:00,
2013-02-21 07:12:00,16.3,8.6,29.83,West,270,4.6,4.6,71,0.00,,,0.00,WUHU21636XXSP,2013-02-21 12:12:00,
2013-02-21 07:13:00,16.3,8.6,29.84,West,270,4.6,4.6,71,0.00,,,0.00,WUHU21636XXSP,2013-02-21 12:13:00,
2013-02-21 07:14:00,16.3,8.3,29.84,West,270,0.8,4.6,70,0.00,,,0.00,WUHU21636XXSP,2013-02-21 12:14:00,
2013-02-21 07:17:00,16.1,8.1,29.84,West,270,4.2,4.6,70,0.00,,,0.00,WUHU21636XXSP,2013-02-21 12:17:00,
2013-02-21 07:19:00,16.1,8.1,29.84,WNW,292,0.0,4.6,70,0.00,,,0.00,WUHU21636XXSP,2013-02-21 12:19:00,
2013-02-21 07:22:00,16.1,7.8,29.84,West,270,4.4,4.6,69,0.00,,,0.00,WUHU21636XXSP,2013-02-21 12:22:00,
2013-02-21 07:24:00,16.1,8.1,29.84,North,0,0.0,4.4,70,0.00,,,0.00,WUHU21636XXSP,2013-02-21 12:24:00,
2013-02-21 07:27:00,16.1,8.4,29.84,NW,315,1.1,4.4,71,0.00,,,0.00,WUHU21636XXSP,2013-02-21 12:27:00,
2013-02-21 07:29:00,16.1,8.4,29.84,NW,315,1.1,4.4,71,0.00,,,0.00,WUHU21636XXSP,2013-02-21 12:29:00,
2013-02-21 07:32:00,16.1,8.1,29.84,East,90,3.8,3.8,70,0.00,,,0.00,WUHU21636XXSP,2013-02-21 12:32:00,
2013-02-21 07:33:00,16.1,8.1,29.84,East,90,3.8,3.8,70,0.00,,,0.00,WUHU21636XXSP,2013-02-21 12:33:00,
2013-02-21 07:34:00,16.1,8.1,29.84,NW,315,0.0,3.8,70,0.00,,,0.00,WUHU21636XXSP,2013-02-21 12:34:00,
2013-02-21 07:37:00,16.1,8.1,29.85,West,270,2.0,3.8,70,0.00,,,0.00,WUHU21636XXSP,2013-02-21 12:37:00,
2013-02-21 07:38:00,16.1,8.1,29.84,ENE,67,0.0,3.8,70,0.00,,,0.00,WUHU21636XXSP,2013-02-21 12:38:00,
2013-02-21 07:39:00,16.1,8.1,29.84,ENE,67,0.0,3.8,70,0.00,,,0.00,WUHU21636XXSP,2013-02-21 12:39:00,
2013-02-21 07:42:00,16.1,7.8,29.85,WNW,292,0.0,3.8,69,0.00,,,0.00,WUHU21636XXSP,2013-02-21 12:42:00,
2013-02-21 07:44:00,16.1,7.8,29.85,WNW,292,0.0,3.1,69,0.00,,,0.00,WUHU21636XXSP,2013-02-21 12:44:00,
2013-02-21 07:45:00,16.1,7.8,29.85,NE,45,0.0,3.1,69,0.00,,,0.00,WUHU21636XXSP,2013-02-21 12:45:00,
2013-02-21 07:47:00,16.1,7.8,29.85,WSW,247,0.0,3.1,69,0.00,,,0.00,WUHU21636XXSP,2013-02-21 12:47:00,
2013-02-21 07:49:00,16.3,8.0,29.85,SW,225,0.0,3.1,69,0.00,,,0.00,WUHU21636XXSP,2013-02-21 12:49:00,
2013-02-21 07:50:00,16.3,8.0,29.85,SW,225,0.0,3.1,69,0.00,,,0.00,WUHU21636XXSP,2013-02-21 12:50:00,
2013-02-21 07:53:00,16.5,8.2,29.85,WNW,292,0.0,0.0,69,0.00,,,0.00,WUHU21636XXSP,2013-02-21 12:53:00,
2013-02-21 07:54:00,16.5,8.2,29.85,WNW,292,0.0,0.0,69,0.00,,,0.00,WUHU21636XXSP,2013-02-21 12:54:00,
2013-02-21 07:55:00,16.3,7.6,29.85,West,270,2.0,2.0,68,0.00,,,0.00,WUHU21636XXSP,2013-02-21 12:55:00,
2013-02-21 07:58:00,16.3,8.0,29.86,NW,315,0.0,2.0,69,0.00,,,0.00,WUHU21636XXSP,2013-02-21 12:58:00,
2013-02-21 07:59:00,16.3,7.6,29.86,NNE,22,0.0,2.0,68,0.00,,,0.00,WUHU21636XXSP,2013-02-21 12:59:00,
2013-02-21 08:00:00,16.3,7.6,29.86,NNE,22,0.0,2.0,68,0.00,,,0.00,WUHU21636XXSP,2013-02-21 13:00:00,
2013-02-21 08:03:00,16.1,7.4,29.86,SW,225,3.1,3.1,68,0.00,,,0.00,WUHU21636XXSP,2013-02-21 13:03:00,
2013-02-21 08:05:00,16.1,7.1,29.86,West,270,3.1,3.1,67,0.00,,,0.00,WUHU21636XXSP,2013-02-21 13:05:00,
2013-02-21 08:08:00,16.0,7.3,29.86,West,270,0.0,3.1,68,0.00,,,0.00,WUHU21636XXSP,2013-02-21 13:08:00,
2013-02-21 08:10:00,16.0,7.3,29.86,West,270,0.0,3.1,68,0.00,,,0.00,WUHU21636XXSP,2013-02-21 13:10:00,
2013-02-21 08:14:00,15.8,7.2,29.86,WSW,247,0.0,3.1,68,0.00,,,0.00,WUHU21636XXSP,2013-02-21 13:14:00,
2013-02-21 08:15:00,15.8,6.5,29.86,WNW,292,3.3,3.3,66,0.00,,,0.00,WUHU21636XXSP,2013-02-21 13:15:00,
2013-02-21 08:19:00,15.6,6.6,29.86,WSW,247,0.0,3.5,67,0.00,,,0.00,WUHU21636XXSP,2013-02-21 13:19:00,
2013-02-21 08:20:00,15.6,6.6,29.86,WSW,247,0.0,3.5,67,0.00,,,0.00,WUHU21636XXSP,2013-02-21 13:20:00,
2013-02-21 08:24:00,15.4,6.8,29.86,West,270,0.0,3.5,68,0.00,,,0.00,WUHU21636XXSP,2013-02-21 13:24:00,
2013-02-21 08:25:00,15.4,6.8,29.86,WNW,292,0.0,3.5,68,0.00,,,0.00,WUHU21636XXSP,2013-02-21 13:25:00,
2013-02-21 08:26:00,15.4,6.8,29.86,WNW,292,0.0,3.5,68,0.00,,,0.00,WUHU21636XXSP,2013-02-21 13:26:00,
2013-02-21 08:29:00,15.8,7.2,29.86,NNE,22,0.0,3.3,68,0.00,,,0.00,WUHU21636XXSP,2013-02-21 13:29:00,
2013-02-21 08:30:00,15.8,7.2,29.86,NNE,22,0.8,3.3,68,0.00,,,0.00,WUHU21636XXSP,2013-02-21 13:30:00,
2013-02-21 08:31:00,15.8,7.2,29.86,NNE,22,0.8,3.3,68,0.00,,,0.00,WUHU21636XXSP,2013-02-21 13:31:00,
2013-02-21 08:34:00,15.6,6.3,29.87,NNW,337,4.2,4.2,66,0.00,,,0.00,WUHU21636XXSP,2013-02-21 13:34:00,
2013-02-21 08:35:00,15.6,6.3,29.88,NNW,337,4.2,4.2,66,0.00,,,0.00,WUHU21636XXSP,2013-02-21 13:35:00,
2013-02-21 08:36:00,15.6,6.3,29.88,West,270,1.3,4.2,66,0.00,,,0.00,WUHU21636XXSP,2013-02-21 13:36:00,
2013-02-21 08:39:00,15.6,6.3,29.87,West,270,0.0,4.2,66,0.00,,,0.00,WUHU21636XXSP,2013-02-21 13:39:00,
2013-02-21 08:40:00,15.8,6.8,29.87,West,270,4.0,4.2,67,0.00,,,0.00,WUHU21636XXSP,2013-02-21 13:40:00,
2013-02-21 08:41:00,15.8,6.8,29.87,West,270,4.0,4.2,67,0.00,,,0.00,WUHU21636XXSP,2013-02-21 13:41:00,
2013-02-21 08:45:00,15.4,5.8,29.87,West,270,2.9,7.8,65,0.00,,,0.00,WUHU21636XXSP,2013-02-21 13:45:00,
2013-02-21 08:46:00,15.4,5.8,29.87,West,270,2.9,7.8,65,0.00,,,0.00,WUHU21636XXSP,2013-02-21 13:46:00,
2013-02-21 08:50:00,15.2,5.9,29.87,NW,315,4.4,7.8,66,0.00,,,0.00,WUHU21636XXSP,2013-02-21 13:50:00,
2013-02-21 08:51:00,15.2,6.3,29.87,North,0,0.0,7.8,67,0.00,,,0.00,WUHU21636XXSP,2013-02-21 13:51:00,
2013-02-21 08:55:00,15.2,6.3,29.87,NNE,22,1.1,4.4,67,0.00,,,0.00,WUHU21636XXSP,2013-02-21 13:55:00,
2013-02-21 08:56:00,15.2,6.3,29.87,NNE,22,1.1,4.4,67,0.00,,,0.00,WUHU21636XXSP,2013-02-21 13:56:00,
2013-02-21 08:57:00,15.4,6.8,29.87,SSW,202,3.3,4.4,68,0.00,,,0.00,WUHU21636XXSP,2013-02-21 13:57:00,
2013-02-21 09:00:00,15.4,6.8,29.87,West,270,1.5,3.8,68,0.00,,,0.00,WUHU21636XXSP,2013-02-21 14:00:00,
2013-02-21 09:01:00,15.2,6.6,29.86,WSW,247,1.1,3.8,68,0.00,,,0.00,WUHU21636XXSP,2013-02-21 14:01:00,
2013-02-21 09:02:00,15.2,6.6,29.87,WSW,247,1.1,3.8,68,0.00,,,0.00,WUHU21636XXSP,2013-02-21 14:02:00,
2013-02-21 09:05:00,15.2,6.6,29.87,West,270,3.3,3.3,68,0.00,,,0.00,WUHU21636XXSP,2013-02-21 14:05:00,
2013-02-21 09:06:00,15.2,6.6,29.87,NNW,337,0.0,3.3,68,0.00,,,0.00,WUHU21636XXSP,2013-02-21 14:06:00,
2013-02-21 09:07:00,15.2,6.6,29.87,NNW,337,0.0,3.3,68,0.00,,,0.00,WUHU21636XXSP,2013-02-21 14:07:00,
2013-02-21 09:10:00,15.1,6.5,29.87,SSW,202,0.0,3.3,68,0.00,,,0.00,WUHU21636XXSP,2013-02-21 14:10:00,
2013-02-21 09:12:00,15.1,6.5,29.87,SSW,202,0.0,3.3,68,0.00,,,0.00,WUHU21636XXSP,2013-02-21 14:12:00,
2013-02-21 09:15:00,15.2,6.6,29.89,WNW,292,4.2,4.2,68,0.00,,,0.00,WUHU21636XXSP,2013-02-21 14:15:00,
2013-02-21 09:17:00,15.2,6.3,29.88,WSW,247,4.4,4.4,67,0.00,,,0.00,WUHU21636XXSP,2013-02-21 14:17:00,
2013-02-21 09:20:00,15.1,6.5,29.88,West,270,0.0,4.4,68,0.00,,,0.00,WUHU21636XXSP,2013-02-21 14:20:00,
2013-02-21 09:22:00,15.2,6.6,29.88,West,270,0.0,4.4,68,0.00,,,0.00,WUHU21636XXSP,2013-02-21 14:22:00,
2013-02-21 09:25:00,15.8,7.2,29.88,North,0,1.3,4.4,68,0.00,,,0.00,WUHU21636XXSP,2013-02-21 14:25:00,
2013-02-21 09:27:00,15.6,6.3,29.88,NW,315,0.0,4.4,66,0.00,,,0.00,WUHU21636XXSP,2013-02-21 14:27:00,
2013-02-21 09:28:00,15.6,6.3,29.88,NW,315,0.0,4.4,66,0.00,,,0.00,WUHU21636XXSP,2013-02-21 14:28:00,
2013-02-21 09:30:00,15.4,6.4,29.89,WNW,292,0.0,1.3,67,0.00,,,0.00,WUHU21636XXSP,2013-02-21 14:30:00,
2013-02-21 09:32:00,15.2,6.3,29.88,West,270,4.2,4.2,67,0.00,,,0.00,WUHU21636XXSP,2013-02-21 14:32:00,
2013-02-21 09:33:00,15.2,6.3,29.88,West,270,4.2,4.2,67,0.00,,,0.00,WUHU21636XXSP,2013-02-21 14:33:00,
2013-02-21 09:36:00,15.2,6.3,29.89,West,270,0.0,8.5,67,0.00,,,0.00,WUHU21636XXSP,2013-02-21 14:36:00,
2013-02-21 09:37:00,15.2,6.3,29.89,West,270,0.0,8.5,67,0.00,,,0.00,WUHU21636XXSP,2013-02-21 14:37:00,
2013-02-21 09:38:00,15.2,6.3,29.89,West,270,0.0,8.5,67,0.00,,,0.00,WUHU21636XXSP,2013-02-21 14:38:00,
2013-02-21 09:41:00,15.4,6.8,29.89,NW,315,2.2,8.5,68,0.00,,,0.00,WUHU21636XXSP,2013-02-21 14:41:00,
2013-02-21 09:42:00,15.4,6.8,29.90,NW,315,2.2,8.5,68,0.00,,,0.00,WUHU21636XXSP,2013-02-21 14:42:00,
2013-02-21 09:43:00,15.4,6.4,29.89,West,270,5.3,8.5,67,0.00,,,0.00,WUHU21636XXSP,2013-02-21 14:43:00,
2013-02-21 09:46:00,14.9,5.6,29.89,WNW,292,3.5,10.5,66,0.00,,,0.00,WUHU21636XXSP,2013-02-21 14:46:00,
2013-02-21 09:47:00,14.9,6.0,29.89,West,270,2.4,10.5,67,0.00,,,0.00,WUHU21636XXSP,2013-02-21 14:47:00,
2013-02-21 09:48:00,14.9,6.0,29.89,West,270,2.4,10.5,67,0.00,,,0.00,WUHU21636XXSP,2013-02-21 14:48:00,
2013-02-21 09:49:00,14.9,6.0,29.89,West,270,2.4,10.5,67,0.00,,,0.00,WUHU21636XXSP,2013-02-21 14:49:00,
2013-02-21 09:51:00,15.2,6.6,29.89,West,270,0.0,10.5,68,0.00,,,0.00,WUHU21636XXSP,2013-02-21 14:51:00,
2013-02-21 09:52:00,15.2,6.6,29.89,West,270,0.0,10.5,68,0.00,,,0.00,WUHU21636XXSP,2013-02-21 14:52:00,
2013-02-21 09:54:00,15.2,6.3,29.89,WSW,247,13.8,17.2,67,0.00,,,0.00,WUHU21636XXSP,2013-02-21 14:54:00,
2013-02-21 09:57:00,15.1,5.8,29.90,West,270,4.0,17.2,66,0.00,,,0.00,WUHU21636XXSP,2013-02-21 14:57:00,
2013-02-21 09:58:00,15.1,5.8,29.90,West,270,4.0,17.2,66,0.00,,,0.00,WUHU21636XXSP,2013-02-21 14:58:00,
2013-02-21 09:59:00,15.1,6.2,29.90,WSW,247,0.0,17.2,67,0.00,,,0.00,WUHU21636XXSP,2013-02-21 14:59:00,
2013-02-21 10:02:00,15.4,6.8,29.90,East,90,0.0,17.2,68,0.00,,,0.00,WUHU21636XXSP,2013-02-21 15:02:00,
2013-02-21 10:03:00,15.4,6.8,29.90,East,90,0.0,17.2,68,0.00,,,0.00,WUHU21636XXSP,2013-02-21 15:03:00,
2013-02-21 10:04:00,15.6,6.3,29.90,WNW,292,0.0,10.5,66,0.00,,,0.00,WUHU21636XXSP,2013-02-21 15:04:00,
2013-02-21 10:07:00,15.6,6.3,29.90,SW,225,0.0,4.0,66,0.00,,,0.00,WUHU21636XXSP,2013-02-21 15:07:00,
2013-02-21 10:08:00,15.8,6.5,29.90,WSW,247,5.3,5.3,66,0.00,,,0.00,WUHU21636XXSP,2013-02-21 15:08:00,
2013-02-21 10:09:00,15.8,6.5,29.90,WSW,247,5.3,5.3,66,0.00,,,0.00,WUHU21636XXSP,2013-02-21 15:09:00,
2013-02-21 10:10:00,15.8,6.5,29.90,West,270,5.3,6.2,66,0.00,,,0.00,WUHU21636XXSP,2013-02-21 15:10:00,
2013-02-21 10:12:00,15.6,6.3,29.90,West,270,3.8,6.9,66,0.00,,,0.00,WUHU21636XXSP,2013-02-21 15:12:00,
2013-02-21 10:13:00,15.6,6.3,29.90,WNW,292,4.2,6.9,66,0.00,,,0.00,WUHU21636XXSP,2013-02-21 15:13:00,
2013-02-21 10:14:00,15.6,6.3,29.90,WNW,292,4.2,6.9,66,0.00,,,0.00,WUHU21636XXSP,2013-02-21 15:14:00,
2013-02-21 10:15:00,15.6,6.3,29.90,WNW,292,4.2,6.9,66,0.00,,,0.00,WUHU21636XXSP,2013-02-21 15:15:00,
2013-02-21 10:17:00,15.6,6.0,29.90,NW,315,0.0,6.9,65,0.00,,,0.00,WUHU21636XXSP,2013-02-21 15:17:00,
2013-02-21 10:19:00,15.6,6.0,29.90,NW,315,0.0,6.9,65,0.00,,,0.00,WUHU21636XXSP,2013-02-21 15:19:00,
2013-02-21 10:20:00,16.0,6.7,29.90,WSW,247,4.2,6.9,66,0.00,,,0.00,WUHU21636XXSP,2013-02-21 15:20:00,
2013-02-21 10:22:00,16.1,6.8,29.90,WSW,247,4.4,4.4,66,0.00,,,0.00,WUHU21636XXSP,2013-02-21 15:22:00,
2013-02-21 10:24:00,16.3,6.6,29.90,West,270,2.0,4.4,65,0.00,,,0.00,WUHU21636XXSP,2013-02-21 15:24:00,
2013-02-21 10:25:00,16.3,6.6,29.90,West,270,2.0,4.4,65,0.00,,,0.00,WUHU21636XXSP,2013-02-21 15:25:00,
2013-02-21 10:28:00,16.1,6.4,29.91,WNW,292,2.4,4.4,65,0.00,,,0.00,WUHU21636XXSP,2013-02-21 15:28:00,
2013-02-21 10:29:00,16.3,6.3,29.90,SSW,202,4.4,4.4,64,0.00,,,0.00,WUHU21636XXSP,2013-02-21 15:29:00,
2013-02-21 10:30:00,16.3,6.3,29.91,SSW,202,4.4,4.4,64,0.00,,,0.00,WUHU21636XXSP,2013-02-21 15:30:00,
2013-02-21 10:33:00,16.1,6.4,29.91,NNE,22,4.0,5.3,65,0.00,,,0.00,WUHU21636XXSP,2013-02-21 15:33:00,
2013-02-21 10:34:00,16.1,6.4,29.91,NNE,22,4.0,5.3,65,0.00,,,0.00,WUHU21636XXSP,2013-02-21 15:34:00,
2013-02-21 10:35:00,15.8,5.8,29.91,WSW,247,8.0,12.3,64,0.00,,,0.00,WUHU21636XXSP,2013-02-21 15:35:00,
2013-02-21 10:38:00,15.8,6.2,29.91,WNW,292,2.6,12.3,65,0.00,,,0.00,WUHU21636XXSP,2013-02-21 15:38:00,
2013-02-21 10:39:00,15.8,5.8,29.91,WNW,292,5.8,12.3,64,0.00,,,0.00,WUHU21636XXSP,2013-02-21 15:39:00,
2013-02-21 10:40:00,15.8,5.8,29.91,West,270,10.2,12.7,64,0.00,,,0.00,WUHU21636XXSP,2013-02-21 15:40:00,
2013-02-21 10:43:00,15.2,5.9,29.91,WNW,292,7.3,12.7,66,0.00,,,0.00,WUHU21636XXSP,2013-02-21 15:43:00,
2013-02-21 10:44:00,15.2,5.9,29.91,WNW,292,4.9,12.7,66,0.00,,,0.00,WUHU21636XXSP,2013-02-21 15:44:00,
2013-02-21 10:45:00,15.4,6.1,29.91,West,270,6.2,12.7,66,0.00,,,0.00,WUHU21636XXSP,2013-02-21 15:45:00,
2013-02-21 10:46:00,15.2,5.9,29.91,West,270,4.9,12.7,66,0.00,,,0.00,WUHU21636XXSP,2013-02-21 15:46:00,
2013-02-21 10:48:00,15.8,6.5,29.91,West,270,5.3,12.7,66,0.00,,,0.00,WUHU21636XXSP,2013-02-21 15:48:00,
2013-02-21 10:49:00,15.6,6.0,29.91,NW,315,4.4,11.4,65,0.00,,,0.00,WUHU21636XXSP,2013-02-21 15:49:00,
2013-02-21 10:50:00,15.6,6.0,29.91,NW,315,4.4,11.4,65,0.00,,,0.00,WUHU21636XXSP,2013-02-21 15:50:00,
2013-02-21 10:51:00,15.6,6.0,29.91,NW,315,4.4,11.4,65,0.00,,,0.00,WUHU21636XXSP,2013-02-21 15:51:00,
2013-02-21 10:54:00,15.4,5.8,29.92,WSW,247,6.9,11.4,65,0.00,,,0.00,WUHU21636XXSP,2013-02-21 15:54:00,
2013-02-21 10:55:00,15.2,5.2,29.92,WNW,292,10.7,16.5,64,0.00,,,0.00,WUHU21636XXSP,2013-02-21 15:55:00,
2013-02-21 10:56:00,15.1,5.5,29.92,WNW,292,10.9,16.5,65,0.00,,,0.00,WUHU21636XXSP,2013-02-21 15:56:00,
2013-02-21 10:59:00,14.7,5.1,29.91,West,270,5.8,16.5,65,0.00,,,0.00,WUHU21636XXSP,2013-02-21 15:59:00,
2013-02-21 11:00:00,14.5,5.3,29.92,NNW,337,5.1,16.5,66,0.00,,,0.00,WUHU21636XXSP,2013-02-21 16:00:00,
2013-02-21 11:01:00,14.5,5.3,29.92,West,270,8.2,16.5,66,0.00,,,0.00,WUHU21636XXSP,2013-02-21 16:01:00,
2013-02-21 11:04:00,14.5,5.6,29.92,NNW,337,5.3,16.5,67,0.00,,,0.00,WUHU21636XXSP,2013-02-21 16:04:00,
2013-02-21 11:05:00,14.5,5.6,29.92,North,0,1.1,16.5,67,0.00,,,0.00,WUHU21636XXSP,2013-02-21 16:05:00,
2013-02-21 11:06:00,14.5,5.6,29.92,North,0,1.1,12.9,67,0.00,,,0.00,WUHU21636XXSP,2013-02-21 16:06:00,
2013-02-21 11:09:00,15.1,6.2,29.93,West,270,1.3,11.8,67,0.00,,,0.00,WUHU21636XXSP,2013-02-21 16:09:00,
2013-02-21 11:10:00,15.1,6.2,29.92,West,270,1.3,11.8,67,0.00,,,0.00,WUHU21636XXSP,2013-02-21 16:10:00,
2013-02-21 11:11:00,15.4,6.4,29.92,WSW,247,4.2,11.8,67,0.00,,,0.00,WUHU21636XXSP,2013-02-21 16:11:00,
2013-02-21 11:14:00,15.8,6.5,29.93,WNW,292,4.9,11.4,66,0.00,,,0.00,WUHU21636XXSP,2013-02-21 16:14:00,
2013-02-21 11:15:00,16.1,6.4,29.93,West,270,10.7,12.0,65,0.00,,,0.00,WUHU21636XXSP,2013-02-21 16:15:00,
2013-02-21 11:16:00,15.8,5.8,29.93,NNW,337,2.4,12.0,64,0.00,,,0.00,WUHU21636XXSP,2013-02-21 16:16:00,
2013-02-21 11:19:00,16.5,6.1,29.93,NW,315,5.3,14.3,63,0.00,,,0.00,WUHU21636XXSP,2013-02-21 16:19:00,
2013-02-21 11:20:00,16.5,6.1,29.93,WNW,292,10.2,16.3,63,0.00,,,0.00,WUHU21636XXSP,2013-02-21 16:20:00,
2013-02-21 11:21:00,16.7,6.3,29.93,WNW,292,2.4,16.3,63,0.00,,,0.00,WUHU21636XXSP,2013-02-21 16:21:00,
2013-02-21 11:22:00,16.7,6.7,29.93,SSW,202,0.0,16.3,64,0.00,,,0.00,WUHU21636XXSP,2013-02-21 16:22:00,
2013-02-21 11:25:00,16.7,6.3,29.93,West,270,3.8,16.3,63,0.00,,,0.00,WUHU21636XXSP,2013-02-21 16:25:00,
2013-02-21 11:26:00,16.7,6.3,29.93,West,270,3.8,16.3,63,0.00,,,0.00,WUHU21636XXSP,2013-02-21 16:26:00,
2013-02-21 11:27:00,17.0,7.0,29.93,WSW,247,4.0,16.3,64,0.00,,,0.00,WUHU21636XXSP,2013-02-21 16:27:00,
2013-02-21 11:30:00,17.0,6.6,29.93,West,270,0.0,13.8,63,0.00,,,0.00,WUHU21636XXSP,2013-02-21 16:30:00,
2013-02-21 11:31:00,17.0,6.6,29.93,West,270,0.0,13.8,63,0.00,,,0.00,WUHU21636XXSP,2013-02-21 16:31:00,
2013-02-21 11:32:00,17.0,6.6,29.93,West,270,0.0,13.8,63,0.00,,,0.00,WUHU21636XXSP,2013-02-21 16:32:00,
2013-02-21 11:35:00,17.8,7.4,29.93,West,270,4.9,4.9,63,0.00,,,0.00,WUHU21636XXSP,2013-02-21 16:35:00,
2013-02-21 11:36:00,17.8,7.4,29.93,West,270,4.9,4.9,63,0.00,,,0.00,WUHU21636XXSP,2013-02-21 16:36:00,
2013-02-21 11:37:00,17.6,6.8,29.93,WSW,247,1.1,4.9,62,0.00,,,0.00,WUHU21636XXSP,2013-02-21 16:37:00,
2013-02-21 11:40:00,17.6,6.8,29.93,West,270,2.9,4.9,62,0.00,,,0.00,WUHU21636XXSP,2013-02-21 16:40:00,
2013-02-21 11:41:00,17.6,6.8,29.93,West,270,2.9,4.9,62,0.00,,,0.00,WUHU21636XXSP,2013-02-21 16:41:00,
2013-02-21 11:42:00,17.2,7.2,29.93,NE,45,2.0,4.9,64,0.00,,,0.00,WUHU21636XXSP,2013-02-21 16:42:00,
2013-02-21 11:45:00,17.2,6.8,29.93,WSW,247,2.0,4.9,63,0.00,,,0.00,WUHU21636XXSP,2013-02-21 16:45:00,
2013-02-21 11:46:00,17.2,6.8,29.93,WSW,247,2.0,4.9,63,0.00,,,0.00,WUHU21636XXSP,2013-02-21 16:46:00,
2013-02-21 11:47:00,17.2,6.8,29.93,WSW,247,2.0,2.9,63,0.00,,,0.00,WUHU21636XXSP,2013-02-21 16:47:00,
2013-02-21 11:51:00,17.0,6.3,29.93,SW,225,0.8,9.3,62,0.00,,,0.00,WUHU21636XXSP,2013-02-21 16:51:00,
2013-02-21 11:52:00,17.0,6.3,29.93,West,270,4.6,9.3,62,0.00,,,0.00,WUHU21636XXSP,2013-02-21 16:52:00,
2013-02-21 11:53:00,17.0,6.3,29.93,West,270,4.6,9.3,62,0.00,,,0.00,WUHU21636XXSP,2013-02-21 16:53:00,
2013-02-21 11:56:00,17.6,7.9,29.93,SSW,202,4.2,9.3,65,0.00,,,0.00,WUHU21636XXSP,2013-02-21 16:56:00,
2013-02-21 11:58:00,18.3,8.2,29.94,WSW,247,0.0,9.3,64,0.00,,,0.00,WUHU21636XXSP,2013-02-21 16:58:00,
2013-02-21 12:01:00,19.0,7.4,29.94,West,270,8.5,9.1,60,0.00,,,0.00,WUHU21636XXSP,2013-02-21 17:01:00,
2013-02-21 12:03:00,18.8,7.6,29.93,SSW,202,0.0,9.8,61,0.00,,,0.00,WUHU21636XXSP,2013-02-21 17:03:00,
2013-02-21 12:06:00,19.6,9.1,29.93,SSW,202,2.9,9.8,63,0.00,,,0.00,WUHU21636XXSP,2013-02-21 17:06:00,
2013-02-21 12:07:00,21.5,12.0,29.93,WSW,247,2.0,9.8,66,0.00,,,0.00,WUHU21636XXSP,2013-02-21 17:07:00,
2013-02-21 12:08:00,21.5,12.0,29.93,WSW,247,2.0,9.8,66,0.00,,,0.00,WUHU21636XXSP,2013-02-21 17:08:00,
2013-02-21 12:11:00,19.7,7.3,29.93,West,270,6.4,12.3,58,0.00,,,0.00,WUHU21636XXSP,2013-02-21 17:11:00,
2013-02-21 12:12:00,19.7,7.3,29.93,West,270,6.4,12.3,58,0.00,,,0.00,WUHU21636XXSP,2013-02-21 17:12:00,
2013-02-21 12:14:00,18.8,7.2,29.93,West,270,3.1,12.3,60,0.00,,,0.00,WUHU21636XXSP,2013-02-21 17:14:00,
2013-02-21 12:16:00,18.8,7.2,29.93,SSW,202,1.3,12.3,60,0.00,,,0.00,WUHU21636XXSP,2013-02-21 17:16:00,
2013-02-21 12:17:00,18.7,7.1,29.93,West,270,5.3,12.3,60,0.00,,,0.00,WUHU21636XXSP,2013-02-21 17:17:00,
2013-02-21 12:19:00,18.3,7.1,29.93,North,0,6.2,12.3,61,0.00,,,0.00,WUHU21636XXSP,2013-02-21 17:19:00,
2013-02-21 12:20:00,17.8,5.5,29.93,West,270,6.7,12.7,58,0.00,,,0.00,WUHU21636XXSP,2013-02-21 17:20:00,
2013-02-21 12:21:00,17.2,5.7,29.93,West,270,6.7,12.7,60,0.00,,,0.00,WUHU21636XXSP,2013-02-21 17:21:00,
2013-02-21 12:22:00,17.2,5.7,29.93,North,0,6.4,12.7,60,0.00,,,0.00,WUHU21636XXSP,2013-02-21 17:22:00,
2013-02-21 12:24:00,17.2,6.1,29.93,WSW,247,1.3,12.7,61,0.00,,,0.00,WUHU21636XXSP,2013-02-21 17:24:00,
2013-02-21 12:25:00,17.6,6.5,29.93,NW,315,7.3,12.7,61,0.00,,,0.00,WUHU21636XXSP,2013-02-21 17:25:00,
2013-02-21 12:26:00,17.6,6.5,29.93,NNW,337,6.7,12.7,61,0.00,,,0.00,WUHU21636XXSP,2013-02-21 17:26:00,
2013-02-21 12:27:00,17.6,6.5,29.94,WNW,292,7.6,12.7,61,0.00,,,0.00,WUHU21636XXSP,2013-02-21 17:27:00,
2013-02-21 12:29:00,17.6,6.1,29.93,WNW,292,0.8,12.7,60,0.00,,,0.00,WUHU21636XXSP,2013-02-21 17:29:00,
2013-02-21 12:30:00,17.6,6.1,29.93,WNW,292,0.8,12.0,60,0.00,,,0.00,WUHU21636XXSP,2013-02-21 17:30:00,
2013-02-21 12:31:00,17.2,6.4,29.94,North,0,2.0,12.0,62,0.00,,,0.00,WUHU21636XXSP,2013-02-21 17:31:00,
2013-02-21 12:32:00,17.2,6.4,29.94,North,0,2.0,12.0,62,0.00,,,0.00,WUHU21636XXSP,2013-02-21 17:32:00,
2013-02-21 12:34:00,16.7,6.0,29.94,WNW,292,7.3,12.0,62,0.00,,,0.00,WUHU21636XXSP,2013-02-21 17:34:00,
2013-02-21 12:35:00,16.7,6.3,29.94,West,270,3.5,12.0,63,0.00,,,0.00,WUHU21636XXSP,2013-02-21 17:35:00,
2013-02-21 12:36:00,16.7,6.3,29.94,SSW,202,2.0,11.8,63,0.00,,,0.00,WUHU21636XXSP,2013-02-21 17:36:00,
2013-02-21 12:37:00,16.7,6.3,29.94,SSW,202,2.0,11.8,63,0.00,,,0.00,WUHU21636XXSP,2013-02-21 17:37:00,
2013-02-21 12:40:00,17.2,7.2,29.93,WSW,247,2.2,11.8,64,0.00,,,0.00,WUHU21636XXSP,2013-02-21 17:40:00,
2013-02-21 12:42:00,18.3,9.2,29.94,WSW,247,0.0,11.8,67,0.00,,,0.00,WUHU21636XXSP,2013-02-21 17:42:00,
2013-02-21 12:43:00,18.3,9.2,29.94,WSW,247,0.0,11.8,67,0.00,,,0.00,WUHU21636XXSP,2013-02-21 17:43:00,
2013-02-21 12:45:00,19.7,10.6,29.93,SSW,202,0.0,3.5,67,0.00,,,0.00,WUHU21636XXSP,2013-02-21 17:45:00,
2013-02-21 12:47:00,20.3,9.8,29.93,West,270,2.6,2.6,63,0.00,,,0.00,WUHU21636XXSP,2013-02-21 17:47:00,
2013-02-21 12:48:00,18.3,6.8,29.93,West,270,9.6,13.4,60,0.00,,,0.00,WUHU21636XXSP,2013-02-21 17:48:00,
2013-02-21 12:50:00,17.2,6.1,29.93,SW,225,5.5,13.4,61,0.00,,,0.00,WUHU21636XXSP,2013-02-21 17:50:00,
2013-02-21 12:52:00,17.8,7.4,29.93,NNW,337,4.9,13.4,63,0.00,,,0.00,WUHU21636XXSP,2013-02-21 17:52:00,
2013-02-21 12:53:00,17.8,7.4,29.93,NNW,337,4.9,13.4,63,0.00,,,0.00,WUHU21636XXSP,2013-02-21 17:53:00,
2013-02-21 12:55:00,17.8,7.0,29.93,West,270,0.0,13.4,62,0.00,,,0.00,WUHU21636XXSP,2013-02-21 17:55:00,
2013-02-21 12:57:00,17.2,6.4,29.93,West,270,3.5,13.4,62,0.00,,,0.00,WUHU21636XXSP,2013-02-21 17:57:00,
2013-02-21 12:58:00,17.2,6.4,29.93,West,270,3.5,10.2,62,0.00,,,0.00,WUHU21636XXSP,2013-02-21 17:58:00,
2013-02-21 13:00:00,16.7,6.3,29.93,NW,315,3.8,4.9,63,0.00,,,0.00,WUHU21636XXSP,2013-02-21 18:00:00,
2013-02-21 13:03:00,16.7,7.0,29.94,SW,225,0.0,4.9,65,0.00,,,0.00,WUHU21636XXSP,2013-02-21 18:03:00,
2013-02-21 13:05:00,17.0,7.0,29.93,South,180,0.0,3.8,64,0.00,,,0.00,WUHU21636XXSP,2013-02-21 18:05:00,
2013-02-21 13:06:00,17.0,7.0,29.93,NNW,337,0.0,3.8,64,0.00,,,0.00,WUHU21636XXSP,2013-02-21 18:06:00,
2013-02-21 13:08:00,17.0,6.6,29.93,NNW,337,4.4,4.4,63,0.00,,,0.00,WUHU21636XXSP,2013-02-21 18:08:00,
2013-02-21 13:09:00,17.0,6.6,29.94,NNW,337,4.4,4.4,63,0.00,,,0.00,WUHU21636XXSP,2013-02-21 18:09:00,
2013-02-21 13:10:00,17.0,6.6,29.94,West,270,0.0,4.4,63,0.00,,,0.00,WUHU21636XXSP,2013-02-21 18:10:00,
2013-02-21 13:11:00,17.0,6.6,29.94,West,270,0.0,4.4,63,0.00,,,0.00,WUHU21636XXSP,2013-02-21 18:11:00,
2013-02-21 13:13:00,17.6,7.5,29.94,WNW,292,2.4,4.4,64,0.00,,,0.00,WUHU21636XXSP,2013-02-21 18:13:00,
2013-02-21 13:14:00,17.6,7.5,29.94,WNW,292,2.4,4.4,64,0.00,,,0.00,WUHU21636XXSP,2013-02-21 18:14:00,
2013-02-21 13:15:00,17.2,6.4,29.94,West,270,0.0,4.4,62,0.00,,,0.00,WUHU21636XXSP,2013-02-21 18:15:00,
2013-02-21 13:16:00,17.0,6.3,29.94,NW,315,0.0,4.4,62,0.00,,,0.00,WUHU21636XXSP,2013-02-21 18:16:00,
2013-02-21 13:18:00,17.0,6.6,29.94,NW,315,0.0,4.4,63,0.00,,,0.00,WUHU21636XXSP,2013-02-21 18:18:00,
2013-02-21 13:19:00,17.0,6.6,29.94,NW,315,0.0,2.4,63,0.00,,,0.00,WUHU21636XXSP,2013-02-21 18:19:00,
2013-02-21 13:20:00,17.2,6.8,29.94,WNW,292,0.0,2.4,63,0.00,,,0.00,WUHU21636XXSP,2013-02-21 18:20:00,
2013-02-21 13:21:00,17.2,6.8,29.94,WNW,292,0.0,2.4,63,0.00,,,0.00,WUHU21636XXSP,2013-02-21 18:21:00,
2013-02-21 13:23:00,17.0,6.3,29.94,WSW,247,5.1,5.1,62,0.00,,,0.00,WUHU21636XXSP,2013-02-21 18:23:00,
2013-02-21 13:24:00,17.0,6.3,29.94,WSW,247,5.1,5.1,62,0.00,,,0.00,WUHU21636XXSP,2013-02-21 18:24:00,
2013-02-21 13:26:00,16.5,5.8,29.95,West,270,0.0,5.1,62,0.00,,,0.00,WUHU21636XXSP,2013-02-21 18:26:00,
2013-02-21 13:29:00,16.7,6.3,29.94,West,270,0.0,5.1,63,0.00,,,0.00,WUHU21636XXSP,2013-02-21 18:29:00,
2013-02-21 13:31:00,16.3,5.9,29.95,SW,225,3.3,5.1,63,0.00,,,0.00,WUHU21636XXSP,2013-02-21 18:31:00,
2013-02-21 13:32:00,16.7,6.3,29.95,West,270,3.1,5.1,63,0.00,,,0.00,WUHU21636XXSP,2013-02-21 18:32:00,
2013-02-21 13:34:00,16.7,6.0,29.95,West,270,3.1,5.1,62,0.00,,,0.00,WUHU21636XXSP,2013-02-21 18:34:00,
2013-02-21 13:35:00,16.7,6.3,29.95,SW,225,0.0,3.3,63,0.00,,,0.00,WUHU21636XXSP,2013-02-21 18:35:00,
2013-02-21 13:36:00,16.7,6.3,29.95,SW,225,0.0,3.3,63,0.00,,,0.00,WUHU21636XXSP,2013-02-21 18:36:00,
2013-02-21 13:37:00,16.7,6.3,29.95,SW,225,0.0,3.3,63,0.00,,,0.00,WUHU21636XXSP,2013-02-21 18:37:00,
2013-02-21 13:39:00,16.9,6.5,29.95,SW,225,0.0,3.3,63,0.00,,,0.00,WUHU21636XXSP,2013-02-21 18:39:00,
2013-02-21 13:41:00,16.7,6.3,29.95,West,270,2.4,3.1,63,0.00,,,0.00,WUHU21636XXSP,2013-02-21 18:41:00,
2013-02-21 13:42:00,16.7,6.3,29.95,West,270,2.6,3.1,63,0.00,,,0.00,WUHU21636XXSP,2013-02-21 18:42:00,
2013-02-21 13:44:00,16.7,6.7,29.95,West,270,4.0,4.0,64,0.00,,,0.00,WUHU21636XXSP,2013-02-21 18:44:00,
2013-02-21 13:46:00,16.7,6.7,29.95,West,270,4.0,4.0,64,0.00,,,0.00,WUHU21636XXSP,2013-02-21 18:46:00,
2013-02-21 13:47:00,17.0,7.0,29.95,South,180,2.9,4.0,64,0.00,,,0.00,WUHU21636XXSP,2013-02-21 18:47:00,
2013-02-21 13:49:00,17.2,6.4,29.95,NW,315,3.8,6.4,62,0.00,,,0.00,WUHU21636XXSP,2013-02-21 18:49:00,
2013-02-21 13:51:00,17.2,6.4,29.95,NW,315,3.8,6.4,62,0.00,,,0.00,WUHU21636XXSP,2013-02-21 18:51:00,
2013-02-21 13:52:00,16.3,5.6,29.95,WNW,292,4.0,6.4,62,0.00,,,0.00,WUHU21636XXSP,2013-02-21 18:52:00,
2013-02-21 13:55:00,16.5,6.1,29.95,West,270,3.8,6.4,63,0.00,,,0.00,WUHU21636XXSP,2013-02-21 18:55:00,
2013-02-21 13:56:00,16.5,6.5,29.95,WNW,292,4.0,6.4,64,0.00,,,0.00,WUHU21636XXSP,2013-02-21 18:56:00,
2013-02-21 13:58:00,16.5,6.5,29.95,WNW,292,4.0,6.4,64,0.00,,,0.00,WUHU21636XXSP,2013-02-21 18:58:00,
2013-02-21 14:00:00,16.5,6.1,29.96,WSW,247,3.3,4.0,63,0.00,,,0.00,WUHU21636XXSP,2013-02-21 19:00:00,
2013-02-21 14:02:00,16.5,6.5,29.96,WSW,247,4.9,4.9,64,0.00,,,0.00,WUHU21636XXSP,2013-02-21 19:02:00,
2013-02-21 14:03:00,16.1,5.8,29.96,West,270,3.8,4.9,63,0.00,,,0.00,WUHU21636XXSP,2013-02-21 19:03:00,
2013-02-21 14:05:00,16.1,6.1,29.96,WSW,247,0.0,4.9,64,0.00,,,0.00,WUHU21636XXSP,2013-02-21 19:05:00,
2013-02-21 14:07:00,16.7,7.0,29.96,West,270,1.5,4.9,65,0.00,,,0.00,WUHU21636XXSP,2013-02-21 19:07:00,
2013-02-21 14:08:00,16.7,7.0,29.96,West,270,1.5,4.9,65,0.00,,,0.00,WUHU21636XXSP,2013-02-21 19:08:00,
2013-02-21 14:10:00,16.7,6.7,29.96,WSW,247,4.2,4.9,64,0.00,,,0.00,WUHU21636XXSP,2013-02-21 19:10:00,
2013-02-21 14:12:00,16.5,6.1,29.96,WNW,292,5.3,10.2,63,0.00,,,0.00,WUHU21636XXSP,2013-02-21 19:12:00,
2013-02-21 14:14:00,16.1,6.1,29.95,West,270,6.4,11.6,64,0.00,,,0.00,WUHU21636XXSP,2013-02-21 19:14:00,
2013-02-21 14:15:00,16.1,6.1,29.95,West,270,3.8,11.6,64,0.00,,,0.00,WUHU21636XXSP,2013-02-21 19:15:00,
2013-02-21 14:17:00,16.1,6.1,29.95,West,270,4.0,11.6,64,0.00,,,0.00,WUHU21636XXSP,2013-02-21 19:17:00,
2013-02-21 14:19:00,16.1,6.4,29.95,West,270,6.4,11.6,65,0.00,,,0.00,WUHU21636XXSP,2013-02-21 19:19:00,
2013-02-21 14:20:00,16.1,6.1,29.95,West,270,3.5,11.6,64,0.00,,,0.00,WUHU21636XXSP,2013-02-21 19:20:00,
2013-02-21 14:22:00,16.3,6.6,29.95,WSW,247,4.4,11.6,65,0.00,,,0.00,WUHU21636XXSP,2013-02-21 19:22:00,
2013-02-21 14:23:00,16.3,6.6,29.95,WSW,247,4.4,11.6,65,0.00,,,0.00,WUHU21636XXSP,2013-02-21 19:23:00,
2013-02-21 14:24:00,16.3,6.3,29.95,West,270,2.4,9.6,64,0.00,,,0.00,WUHU21636XXSP,2013-02-21 19:24:00,
2013-02-21 14:25:00,16.3,6.3,29.95,West,270,3.1,9.6,64,0.00,,,0.00,WUHU21636XXSP,2013-02-21 19:25:00,
2013-02-21 14:27:00,16.3,6.3,29.95,West,270,4.6,9.6,64,0.00,,,0.00,WUHU21636XXSP,2013-02-21 19:27:00,
2013-02-21 14:28:00,16.3,6.3,29.95,West,270,4.6,9.6,64,0.00,,,0.00,WUHU21636XXSP,2013-02-21 19:28:00,
2013-02-21 14:29:00,16.3,6.3,29.95,West,270,4.6,4.6,64,0.00,,,0.00,WUHU21636XXSP,2013-02-21 19:29:00,
2013-02-21 14:31:00,16.3,6.6,29.96,WNW,292,0.0,4.6,65,0.00,,,0.00,WUHU21636XXSP,2013-02-21 19:31:00,
2013-02-21 14:33:00,16.7,7.4,29.97,West,270,0.0,4.6,66,0.00,,,0.00,WUHU21636XXSP,2013-02-21 19:33:00,
2013-02-21 14:34:00,17.0,7.0,29.96,WNW,292,2.6,4.6,64,0.00,,,0.00,WUHU21636XXSP,2013-02-21 19:34:00,
2013-02-21 14:36:00,17.0,7.0,29.96,WNW,292,2.6,4.6,64,0.00,,,0.00,WUHU21636XXSP,2013-02-21 19:36:00,
2013-02-21 14:38:00,17.2,7.2,29.96,West,270,0.0,4.6,64,0.00,,,0.00,WUHU21636XXSP,2013-02-21 19:38:00,
2013-02-21 14:39:00,17.2,7.2,29.96,NW,315,4.2,4.2,64,0.00,,,0.00,WUHU21636XXSP,2013-02-21 19:39:00,
2013-02-21 14:42:00,17.0,7.0,29.96,West,270,3.8,4.2,64,0.00,,,0.00,WUHU21636XXSP,2013-02-21 19:42:00,
2013-02-21 14:43:00,16.7,6.7,29.96,WNW,292,5.5,5.5,64,0.00,,,0.00,WUHU21636XXSP,2013-02-21 19:43:00,
2013-02-21 14:44:00,16.7,6.7,29.96,WNW,292,5.5,5.5,64,0.00,,,0.00,WUHU21636XXSP,2013-02-21 19:44:00,
2013-02-21 14:47:00,16.9,6.9,29.96,WSW,247,0.0,5.5,64,0.00,,,0.00,WUHU21636XXSP,2013-02-21 19:47:00,
2013-02-21 14:48:00,17.0,7.0,29.96,West,270,0.8,5.5,64,0.00,,,0.00,WUHU21636XXSP,2013-02-21 19:48:00,
2013-02-21 14:49:00,17.0,7.0,29.96,West,270,0.8,5.5,64,0.00,,,0.00,WUHU21636XXSP,2013-02-21 19:49:00,
2013-02-21 14:50:00,16.9,6.9,29.96,NW,315,2.4,5.5,64,0.00,,,0.00,WUHU21636XXSP,2013-02-21 19:50:00,
2013-02-21 14:52:00,16.9,6.9,29.96,NW,315,4.4,5.5,64,0.00,,,0.00,WUHU21636XXSP,2013-02-21 19:52:00,
2013-02-21 14:53:00,16.9,6.9,29.96,NW,315,4.4,5.5,64,0.00,,,0.00,WUHU21636XXSP,2013-02-21 19:53:00,
2013-02-21 14:54:00,16.9,6.9,29.96,West,270,0.0,5.5,64,0.00,,,0.00,WUHU21636XXSP,2013-02-21 19:54:00,
2013-02-21 14:55:00,16.9,6.9,29.96,West,270,0.0,4.4,64,0.00,,,0.00,WUHU21636XXSP,2013-02-21 19:55:00,
2013-02-21 14:57:00,17.0,7.0,29.96,West,270,5.5,5.5,64,0.00,,,0.00,WUHU21636XXSP,2013-02-21 19:57:00,
2013-02-21 14:59:00,16.7,6.7,29.96,NW,315,2.6,5.5,64,0.00,,,0.00,WUHU21636XXSP,2013-02-21 19:59:00,
2013-02-21 15:00:00,17.0,7.3,29.97,West,270,3.3,5.5,65,0.00,,,0.00,WUHU21636XXSP,2013-02-21 20:00:00,
2013-02-21 15:02:00,17.0,7.0,29.97,WNW,292,0.0,5.5,64,0.00,,,0.00,WUHU21636XXSP,2013-02-21 20:02:00,
2013-02-21 15:04:00,17.0,7.0,29.97,WNW,292,0.0,5.5,64,0.00,,,0.00,WUHU21636XXSP,2013-02-21 20:04:00,
2013-02-21 15:05:00,17.0,7.0,29.96,WSW,247,0.0,5.5,64,0.00,,,0.00,WUHU21636XXSP,2013-02-21 20:05:00,
2013-02-21 15:07:00,16.9,6.9,29.97,WNW,292,3.5,5.5,64,0.00,,,0.00,WUHU21636XXSP,2013-02-21 20:07:00,
2013-02-21 15:09:00,16.7,6.7,29.97,WNW,292,0.0,3.5,64,0.00,,,0.00,WUHU21636XXSP,2013-02-21 20:09:00,
2013-02-21 15:11:00,16.7,6.7,29.97,West,270,3.5,3.5,64,0.00,,,0.00,WUHU21636XXSP,2013-02-21 20:11:00,
2013-02-21 15:12:00,16.7,6.7,29.97,West,270,3.5,3.5,64,0.00,,,0.00,WUHU21636XXSP,2013-02-21 20:12:00,
2013-02-21 15:13:00,16.7,6.7,29.97,WNW,292,3.1,3.5,64,0.00,,,0.00,WUHU21636XXSP,2013-02-21 20:13:00,
2013-02-21 15:14:00,16.7,6.7,29.97,WNW,292,3.1,3.5,64,0.00,,,0.00,WUHU21636XXSP,2013-02-21 20:14:00,
2013-02-21 15:16:00,16.7,6.7,29.98,West,270,3.8,3.8,64,0.00,,,0.00,WUHU21636XXSP,2013-02-21 20:16:00,
2013-02-21 15:17:00,16.5,6.5,29.98,NNW,337,3.8,3.8,64,0.00,,,0.00,WUHU21636XXSP,2013-02-21 20:17:00,
2013-02-21 15:18:00,16.5,6.5,29.98,NNW,337,3.8,3.8,64,0.00,,,0.00,WUHU21636XXSP,2013-02-21 20:18:00,
2013-02-21 15:19:00,16.5,6.5,29.98,WNW,292,2.4,3.8,64,0.00,,,0.00,WUHU21636XXSP,2013-02-21 20:19:00,
2013-02-21 15:21:00,16.5,6.5,29.98,WNW,292,2.4,3.8,64,0.00,,,0.00,WUHU21636XXSP,2013-02-21 20:21:00,
2013-02-21 15:22:00,16.5,6.5,29.98,WNW,292,3.5,3.8,64,0.00,,,0.00,WUHU21636XXSP,2013-02-21 20:22:00,
2013-02-21 15:23:00,16.5,6.5,29.98,WNW,292,3.5,3.8,64,0.00,,,0.00,WUHU21636XXSP,2013-02-21 20:23:00,
2013-02-21 15:25:00,16.5,6.5,29.98,West,270,0.0,3.8,64,0.00,,,0.00,WUHU21636XXSP,2013-02-21 20:25:00,
2013-02-21 15:26:00,16.7,7.0,29.98,ESE,112,0.0,3.8,65,0.00,,,0.00,WUHU21636XXSP,2013-02-21 20:26:00,
2013-02-21 15:28:00,16.7,7.0,29.98,ESE,112,0.0,3.8,65,0.00,,,0.00,WUHU21636XXSP,2013-02-21 20:28:00,
2013-02-21 15:30:00,16.7,6.7,29.98,West,270,3.3,3.5,64,0.00,,,0.00,WUHU21636XXSP,2013-02-21 20:30:00,
2013-02-21 15:31:00,16.7,6.7,29.98,West,270,3.3,3.5,64,0.00,,,0.00,WUHU21636XXSP,2013-02-21 20:31:00,
2013-02-21 15:33:00,16.5,6.5,29.98,West,270,0.0,3.5,64,0.00,,,0.00,WUHU21636XXSP,2013-02-21 20:33:00,
2013-02-21 15:35:00,16.7,6.7,29.98,NW,315,2.6,3.3,64,0.00,,,0.00,WUHU21636XXSP,2013-02-21 20:35:00,
2013-02-21 15:36:00,16.7,6.7,29.98,NW,315,2.6,3.3,64,0.00,,,0.00,WUHU21636XXSP,2013-02-21 20:36:00,
2013-02-21 15:38:00,16.9,6.9,29.99,WSW,247,4.9,4.9,64,0.00,,,0.00,WUHU21636XXSP,2013-02-21 20:38:00,
2013-02-21 15:41:00,17.0,7.3,29.99,WNW,292,0.0,4.9,65,0.00,,,0.00,WUHU21636XXSP,2013-02-21 20:41:00,
2013-02-21 15:43:00,17.0,7.0,29.98,West,270,3.3,4.9,64,0.00,,,0.00,WUHU21636XXSP,2013-02-21 20:43:00,
2013-02-21 15:44:00,17.0,7.0,29.98,West,270,3.3,4.9,64,0.00,,,0.00,WUHU21636XXSP,2013-02-21 20:44:00,
2013-02-21 15:46:00,17.0,7.0,29.98,West,270,0.0,4.9,64,0.00,,,0.00,WUHU21636XXSP,2013-02-21 20:46:00,
2013-02-21 15:49:00,17.0,7.0,29.99,WSW,247,0.0,3.3,64,0.00,,,0.00,WUHU21636XXSP,2013-02-21 20:49:00,
2013-02-21 15:51:00,17.2,7.5,29.98,WNW,292,2.9,3.3,65,0.00,,,0.00,WUHU21636XXSP,2013-02-21 20:51:00,
2013-02-21 15:54:00,17.2,7.5,29.99,WNW,292,0.0,3.3,65,0.00,,,0.00,WUHU21636XXSP,2013-02-21 20:54:00,
2013-02-21 15:56:00,17.2,7.2,29.98,West,270,4.2,4.2,64,0.00,,,0.00,WUHU21636XXSP,2013-02-21 20:56:00,
2013-02-21 15:59:00,17.0,7.3,29.99,WNW,292,0.0,4.2,65,0.00,,,0.00,WUHU21636XXSP,2013-02-21 20:59:00,
2013-02-21 16:01:00,17.2,7.5,29.99,SSW,202,0.0,4.2,65,0.00,,,0.00,WUHU21636XXSP,2013-02-21 21:01:00,
2013-02-21 16:04:00,17.2,7.5,29.99,WSW,247,0.0,4.2,65,0.00,,,0.00,WUHU21636XXSP,2013-02-21 21:04:00,
2013-02-21 16:06:00,17.2,7.5,29.99,WNW,292,0.0,0.0,65,0.00,,,0.00,WUHU21636XXSP,2013-02-21 21:06:00,
2013-02-21 16:09:00,17.0,7.0,30.00,WNW,292,0.0,0.0,64,0.00,,,0.00,WUHU21636XXSP,2013-02-21 21:09:00,
2013-02-21 16:11:00,17.0,7.0,30.00,West,270,0.8,0.8,64,0.00,,,0.00,WUHU21636XXSP,2013-02-21 21:11:00,
2013-02-21 16:14:00,17.0,7.0,30.00,NW,315,0.0,0.8,64,0.00,,,0.00,WUHU21636XXSP,2013-02-21 21:14:00,
2013-02-21 16:16:00,17.2,7.5,30.00,WSW,247,0.0,0.8,65,0.00,,,0.00,WUHU21636XXSP,2013-02-21 21:16:00,
2013-02-21 16:17:00,17.2,7.5,30.00,WSW,247,0.0,0.8,65,0.00,,,0.00,WUHU21636XXSP,2013-02-21 21:17:00,
2013-02-21 16:19:00,17.2,7.5,30.00,WSW,247,0.0,0.8,65,0.00,,,0.00,WUHU21636XXSP,2013-02-21 21:19:00,
2013-02-21 16:20:00,17.4,7.7,30.00,SW,225,0.0,0.8,65,0.00,,,0.00,WUHU21636XXSP,2013-02-21 21:20:00,
2013-02-21 16:21:00,17.6,7.9,30.00,SSW,202,0.0,0.8,65,0.00,,,0.00,WUHU21636XXSP,2013-02-21 21:21:00,
2013-02-21 16:22:00,17.6,7.9,30.00,SSW,202,0.0,0.8,65,0.00,,,0.00,WUHU21636XXSP,2013-02-21 21:22:00,
2013-02-21 16:24:00,17.8,8.1,30.00,WSW,247,0.0,0.0,65,0.00,,,0.00,WUHU21636XXSP,2013-02-21 21:24:00,
2013-02-21 16:25:00,17.8,8.1,30.00,WSW,247,0.0,0.0,65,0.00,,,0.00,WUHU21636XXSP,2013-02-21 21:25:00,
2013-02-21 16:27:00,17.9,7.8,30.00,West,270,0.0,0.0,64,0.00,,,0.00,WUHU21636XXSP,2013-02-21 21:27:00,
2013-02-21 16:29:00,17.9,7.8,30.01,West,270,0.0,0.0,64,0.00,,,0.00,WUHU21636XXSP,2013-02-21 21:29:00,
2013-02-21 16:30:00,17.9,7.8,30.01,West,270,0.0,0.0,64,0.00,,,0.00,WUHU21636XXSP,2013-02-21 21:30:00,
2013-02-21 16:32:00,17.8,7.7,30.00,West,270,1.5,1.5,64,0.00,,,0.00,WUHU21636XXSP,2013-02-21 21:32:00,
2013-02-21 16:35:00,17.8,7.7,30.01,West,270,0.0,1.5,64,0.00,,,0.00,WUHU21636XXSP,2013-02-21 21:35:00,
2013-02-21 16:37:00,17.6,7.9,30.01,SW,225,0.0,1.5,65,0.00,,,0.00,WUHU21636XXSP,2013-02-21 21:37:00,
2013-02-21 16:40:00,17.6,7.9,30.01,WNW,292,0.0,1.5,65,0.00,,,0.00,WUHU21636XXSP,2013-02-21 21:40:00,
2013-02-21 16:42:00,17.2,7.2,30.02,WSW,247,0.0,0.0,64,0.00,,,0.00,WUHU21636XXSP,2013-02-21 21:42:00,
2013-02-21 16:45:00,17.2,7.5,30.02,SSW,202,0.0,0.0,65,0.00,,,0.00,WUHU21636XXSP,2013-02-21 21:45:00,
2013-02-21 16:47:00,17.2,7.5,30.02,WNW,292,0.0,4.6,65,0.00,,,0.00,WUHU21636XXSP,2013-02-21 21:47:00,
2013-02-21 16:50:00,17.2,7.5,30.02,WSW,247,0.0,4.6,65,0.00,,,0.00,WUHU21636XXSP,2013-02-21 21:50:00,
2013-02-21 16:52:00,17.2,7.5,30.02,WSW,247,0.0,4.6,65,0.00,,,0.00,WUHU21636XXSP,2013-02-21 21:52:00,
2013-02-21 16:55:00,17.0,7.3,30.03,North,0,0.0,4.6,65,0.00,,,0.00,WUHU21636XXSP,2013-02-21 21:55:00,
2013-02-21 16:57:00,16.7,7.0,30.03,NW,315,0.0,0.0,65,0.00,,,0.00,WUHU21636XXSP,2013-02-21 21:57:00,
2013-02-21 17:00:00,16.7,7.4,30.03,SW,225,3.3,3.3,66,0.00,,,0.00,WUHU21636XXSP,2013-02-21 22:00:00,
2013-02-21 17:01:00,16.7,7.4,30.03,SW,225,3.3,3.3,66,0.00,,,0.00,WUHU21636XXSP,2013-02-21 22:01:00,
2013-02-21 17:02:00,16.7,7.4,30.03,West,270,3.5,3.5,66,0.00,,,0.00,WUHU21636XXSP,2013-02-21 22:02:00,
2013-02-21 17:05:00,16.5,7.2,30.03,West,270,0.0,3.5,66,0.00,,,0.00,WUHU21636XXSP,2013-02-21 22:05:00,
2013-02-21 17:06:00,16.5,7.2,30.03,West,270,0.0,3.5,66,0.00,,,0.00,WUHU21636XXSP,2013-02-21 22:06:00,
2013-02-21 17:07:00,16.5,7.2,30.04,West,270,0.0,3.5,66,0.00,,,0.00,WUHU21636XXSP,2013-02-21 22:07:00,
2013-02-21 17:10:00,16.7,7.7,30.04,ENE,67,0.0,3.5,67,0.00,,,0.00,WUHU21636XXSP,2013-02-21 22:10:00,
2013-02-21 17:11:00,16.7,7.7,30.04,ENE,67,0.0,3.5,67,0.00,,,0.00,WUHU21636XXSP,2013-02-21 22:11:00,
2013-02-21 17:13:00,16.7,7.4,30.04,NW,315,0.0,3.5,66,0.00,,,0.00,WUHU21636XXSP,2013-02-21 22:13:00,
2013-02-21 17:15:00,16.5,7.2,30.04,WNW,292,3.1,5.1,66,0.00,,,0.00,WUHU21636XXSP,2013-02-21 22:15:00,
2013-02-21 17:16:00,16.5,7.2,30.04,WNW,292,3.1,5.1,66,0.00,,,0.00,WUHU21636XXSP,2013-02-21 22:16:00,
2013-02-21 17:18:00,16.5,7.5,30.05,WNW,292,0.0,5.1,67,0.00,,,0.00,WUHU21636XXSP,2013-02-21 22:18:00,
2013-02-21 17:21:00,16.5,7.5,30.05,West,270,4.0,5.1,67,0.00,,,0.00,WUHU21636XXSP,2013-02-21 22:21:00,
2013-02-21 17:23:00,16.5,7.5,30.05,WSW,247,2.6,5.1,67,0.00,,,0.00,WUHU21636XXSP,2013-02-21 22:23:00,
2013-02-21 17:26:00,16.3,7.3,30.05,WSW,247,0.0,4.0,67,0.00,,,0.00,WUHU21636XXSP,2013-02-21 22:26:00,
2013-02-21 17:28:00,16.3,7.3,30.05,WSW,247,0.0,4.0,67,0.00,,,0.00,WUHU21636XXSP,2013-02-21 22:28:00,
2013-02-21 17:31:00,16.3,7.3,30.04,West,270,0.0,4.2,67,0.00,,,0.00,WUHU21636XXSP,2013-02-21 22:31:00,
2013-02-21 17:33:00,16.3,7.6,30.05,West,270,0.0,4.2,68,0.00,,,0.00,WUHU21636XXSP,2013-02-21 22:33:00,
2013-02-21 17:36:00,16.3,7.6,30.05,SSW,202,0.0,4.2,68,0.00,,,0.00,WUHU21636XXSP,2013-02-21 22:36:00,
2013-02-21 17:38:00,16.3,7.6,30.06,WNW,292,0.0,4.2,68,0.00,,,0.00,WUHU21636XXSP,2013-02-21 22:38:00,
2013-02-21 17:41:00,16.3,7.6,30.06,West,270,0.0,0.0,68,0.00,,,0.00,WUHU21636XXSP,2013-02-21 22:41:00,
2013-02-21 17:43:00,16.3,7.6,30.06,West,270,0.0,0.0,68,0.00,,,0.00,WUHU21636XXSP,2013-02-21 22:43:00,
2013-02-21 17:44:00,16.3,7.6,30.06,SSW,202,0.0,0.0,68,0.00,,,0.00,WUHU21636XXSP,2013-02-21 22:44:00,
2013-02-21 17:46:00,16.3,7.6,30.07,SSE,157,0.0,0.0,68,0.00,,,0.00,WUHU21636XXSP,2013-02-21 22:46:00,
2013-02-21 17:47:00,16.3,7.6,30.07,SSE,157,0.0,0.0,68,0.00,,,0.00,WUHU21636XXSP,2013-02-21 22:47:00,
2013-02-21 17:48:00,16.5,7.8,30.07,NE,45,0.0,0.0,68,0.00,,,0.00,WUHU21636XXSP,2013-02-21 22:48:00,
2013-02-21 17:49:00,16.5,7.8,30.07,NE,45,0.0,0.0,68,0.00,,,0.00,WUHU21636XXSP,2013-02-21 22:49:00,
2013-02-21 17:51:00,16.3,7.6,30.07,NE,45,0.0,0.0,68,0.00,,,0.00,WUHU21636XXSP,2013-02-21 22:51:00,
2013-02-21 17:52:00,16.3,7.6,30.07,NE,45,0.0,0.0,68,0.00,,,0.00,WUHU21636XXSP,2013-02-21 22:52:00,
2013-02-21 17:54:00,16.3,7.6,30.07,NE,45,0.0,0.0,68,0.00,,,0.00,WUHU21636XXSP,2013-02-21 22:54:00,
2013-02-21 17:55:00,16.5,7.8,30.07,NE,45,0.0,0.0,68,0.00,,,0.00,WUHU21636XXSP,2013-02-21 22:55:00,
2013-02-21 17:57:00,16.5,7.8,30.08,NE,45,0.0,0.0,68,0.00,,,0.00,WUHU21636XXSP,2013-02-21 22:57:00,
2013-02-21 17:59:00,16.5,7.8,30.08,NE,45,0.0,0.0,68,0.00,,,0.00,WUHU21636XXSP,2013-02-21 22:59:00,
2013-02-21 18:00:00,16.5,7.8,30.08,NE,45,0.0,0.0,68,0.00,,,0.00,WUHU21636XXSP,2013-02-21 23:00:00,
2013-02-21 18:02:00,16.5,7.8,30.08,NNE,22,0.0,0.0,68,0.00,,,0.00,WUHU21636XXSP,2013-02-21 23:02:00,
2013-02-21 18:04:00,16.3,7.6,30.08,West,270,0.0,0.0,68,0.00,,,0.00,WUHU21636XXSP,2013-02-21 23:04:00,
2013-02-21 18:05:00,16.3,7.6,30.08,NNW,337,0.0,0.0,68,0.00,,,0.00,WUHU21636XXSP,2013-02-21 23:05:00,
2013-02-21 18:07:00,16.3,7.6,30.09,West,270,0.0,0.0,68,0.00,,,0.00,WUHU21636XXSP,2013-02-21 23:07:00,
2013-02-21 18:09:00,16.3,7.6,30.09,North,0,0.0,0.0,68,0.00,,,0.00,WUHU21636XXSP,2013-02-21 23:09:00,
2013-02-21 18:11:00,16.3,7.6,30.08,North,0,0.0,0.0,68,0.00,,,0.00,WUHU21636XXSP,2013-02-21 23:11:00,
2013-02-21 18:12:00,16.3,7.6,30.08,NNE,22,0.0,0.0,68,0.00,,,0.00,WUHU21636XXSP,2013-02-21 23:12:00,
2013-02-21 18:13:00,16.3,7.6,30.09,NNE,22,0.0,0.0,68,0.00,,,0.00,WUHU21636XXSP,2013-02-21 23:13:00,
2013-02-21 18:15:00,16.3,8.0,30.09,NNE,22,0.0,0.0,69,0.00,,,0.00,WUHU21636XXSP,2013-02-21 23:15:00,
2013-02-21 18:16:00,16.5,8.2,30.09,North,0,0.0,0.0,69,0.00,,,0.00,WUHU21636XXSP,2013-02-21 23:16:00,
2013-02-21 18:17:00,16.5,8.2,30.09,North,0,0.0,0.0,69,0.00,,,0.00,WUHU21636XXSP,2013-02-21 23:17:00,
2013-02-21 18:18:00,16.3,8.0,30.09,North,0,0.0,0.0,69,0.00,,,0.00,WUHU21636XXSP,2013-02-21 23:18:00,
2013-02-21 18:20:00,16.3,8.0,30.09,North,0,0.0,0.0,69,0.00,,,0.00,WUHU21636XXSP,2013-02-21 23:20:00,
2013-02-21 18:21:00,16.3,8.0,30.09,West,270,0.0,0.0,69,0.00,,,0.00,WUHU21636XXSP,2013-02-21 23:21:00,
2013-02-21 18:22:00,16.3,8.0,30.09,WNW,292,0.0,0.0,69,0.00,,,0.00,WUHU21636XXSP,2013-02-21 23:22:00,
2013-02-21 18:23:00,16.3,8.0,30.09,WNW,292,0.0,0.0,69,0.00,,,0.00,WUHU21636XXSP,2013-02-21 23:23:00,
2013-02-21 18:25:00,16.3,8.0,30.08,WNW,292,0.0,0.0,69,0.00,,,0.00,WUHU21636XXSP,2013-02-21 23:25:00,
2013-02-21 18:26:00,16.3,8.0,30.09,WNW,292,0.0,0.0,69,0.00,,,0.00,WUHU21636XXSP,2013-02-21 23:26:00,
2013-02-21 18:28:00,16.3,8.0,30.09,West,270,0.0,0.0,69,0.00,,,0.00,WUHU21636XXSP,2013-02-21 23:28:00,
2013-02-21 18:30:00,16.3,8.0,30.09,West,270,0.0,0.0,69,0.00,,,0.00,WUHU21636XXSP,2013-02-21 23:30:00,
2013-02-21 18:31:00,16.3,8.0,30.09,West,270,0.0,0.0,69,0.00,,,0.00,WUHU21636XXSP,2013-02-21 23:31:00,
2013-02-21 18:33:00,16.3,8.0,30.09,West,270,0.0,0.0,69,0.00,,,0.00,WUHU21636XXSP,2013-02-21 23:33:00,
2013-02-21 18:35:00,16.3,8.0,30.09,West,270,0.0,0.0,69,0.00,,,0.00,WUHU21636XXSP,2013-02-21 23:35:00,
2013-02-21 18:37:00,16.3,8.0,30.09,West,270,0.0,0.0,69,0.00,,,0.00,WUHU21636XXSP,2013-02-21 23:37:00,
2013-02-21 18:38:00,16.3,8.0,30.09,West,270,0.0,0.0,69,0.00,,,0.00,WUHU21636XXSP,2013-02-21 23:38:00,
2013-02-21 18:40:00,16.5,8.2,30.10,West,270,0.0,0.0,69,0.00,,,0.00,WUHU21636XXSP,2013-02-21 23:40:00,
2013-02-21 18:42:00,16.5,8.2,30.09,West,270,0.0,0.0,69,0.00,,,0.00,WUHU21636XXSP,2013-02-21 23:42:00,
2013-02-21 18:43:00,16.5,8.2,30.09,West,270,0.0,0.0,69,0.00,,,0.00,WUHU21636XXSP,2013-02-21 23:43:00,
2013-02-21 18:45:00,16.5,8.2,30.10,West,270,0.0,0.0,69,0.00,,,0.00,WUHU21636XXSP,2013-02-21 23:45:00,
2013-02-21 18:48:00,16.5,8.2,30.10,West,270,0.0,0.0,69,0.00,,,0.00,WUHU21636XXSP,2013-02-21 23:48:00,
2013-02-21 18:50:00,16.7,8.3,30.10,West,270,0.0,0.0,69,0.00,,,0.00,WUHU21636XXSP,2013-02-21 23:50:00,
2013-02-21 18:53:00,16.7,8.3,30.10,West,270,0.0,0.0,69,0.00,,,0.00,WUHU21636XXSP,2013-02-21 23:53:00,
2013-02-21 18:56:00,16.7,8.3,30.10,West,270,0.0,0.0,69,0.00,,,0.00,WUHU21636XXSP,2013-02-21 23:56:00,
2013-02-21 18:58:00,16.7,8.3,30.11,West,270,0.0,0.0,69,0.00,,,0.00,WUHU21636XXSP,2013-02-21 23:58:00,
2013-02-21 19:01:00,16.7,8.3,30.11,West,270,0.0,0.0,69,0.00,,,0.00,WUHU21636XXSP,2013-02-22 00:01:00,
2013-02-21 19:03:00,16.9,8.5,30.11,West,270,0.0,0.0,69,0.00,,,0.00,WUHU21636XXSP,2013-02-22 00:03:00,
2013-02-21 19:04:00,16.9,8.5,30.11,West,270,0.0,0.0,69,0.00,,,0.00,WUHU21636XXSP,2013-02-22 00:04:00,
2013-02-21 19:06:00,16.9,8.5,30.12,West,270,0.0,0.0,69,0.00,,,0.00,WUHU21636XXSP,2013-02-22 00:06:00,
2013-02-21 19:08:00,17.0,8.6,30.12,West,270,0.0,0.0,69,0.00,,,0.00,WUHU21636XXSP,2013-02-22 00:08:00,
2013-02-21 19:09:00,17.0,8.6,30.11,West,270,0.0,0.0,69,0.00,,,0.00,WUHU21636XXSP,2013-02-22 00:09:00,
2013-02-21 19:11:00,17.0,8.6,30.11,West,270,0.0,0.0,69,0.00,,,0.00,WUHU21636XXSP,2013-02-22 00:11:00,
2013-02-21 19:13:00,17.0,8.6,30.11,West,270,0.0,0.0,69,0.00,,,0.00,WUHU21636XXSP,2013-02-22 00:13:00,
2013-02-21 19:14:00,17.0,8.9,30.11,NW,315,0.0,0.0,70,0.00,,,0.00,WUHU21636XXSP,2013-02-22 00:14:00,
2013-02-21 19:16:00,17.0,8.9,30.11,NW,315,0.0,0.0,70,0.00,,,0.00,WUHU21636XXSP,2013-02-22 00:16:00,
2013-02-21 19:19:00,17.0,8.9,30.11,NW,315,0.0,0.0,70,0.00,,,0.00,WUHU21636XXSP,2013-02-22 00:19:00,
2013-02-21 19:22:00,17.0,8.9,30.11,NW,315,0.0,0.0,70,0.00,,,0.00,WUHU21636XXSP,2013-02-22 00:22:00,
2013-02-21 19:24:00,17.0,8.6,30.11,NW,315,0.0,0.0,69,0.00,,,0.00,WUHU21636XXSP,2013-02-22 00:24:00,
2013-02-21 19:25:00,17.0,8.6,30.11,NW,315,0.0,0.0,69,0.00,,,0.00,WUHU21636XXSP,2013-02-22 00:25:00,
2013-02-21 19:27:00,17.0,8.6,30.11,NW,315,0.0,0.0,69,0.00,,,0.00,WUHU21636XXSP,2013-02-22 00:27:00,
2013-02-21 19:29:00,17.0,8.9,30.12,NW,315,0.0,0.0,70,0.00,,,0.00,WUHU21636XXSP,2013-02-22 00:29:00,
2013-02-21 19:30:00,17.0,8.9,30.12,NW,315,0.0,0.0,70,0.00,,,0.00,WUHU21636XXSP,2013-02-22 00:30:00,
2013-02-21 19:32:00,17.0,8.9,30.12,NW,315,0.0,0.0,70,0.00,,,0.00,WUHU21636XXSP,2013-02-22 00:32:00,
2013-02-21 19:34:00,17.0,8.9,30.12,NW,315,0.0,0.0,70,0.00,,,0.00,WUHU21636XXSP,2013-02-22 00:34:00,
2013-02-21 19:35:00,17.0,8.9,30.12,NW,315,0.0,0.0,70,0.00,,,0.00,WUHU21636XXSP,2013-02-22 00:35:00,
2013-02-21 19:37:00,17.0,8.9,30.12,NW,315,0.0,0.0,70,0.00,,,0.00,WUHU21636XXSP,2013-02-22 00:37:00,
2013-02-21 19:39:00,17.0,8.9,30.12,NW,315,0.0,0.0,70,0.00,,,0.00,WUHU21636XXSP,2013-02-22 00:39:00,
2013-02-21 19:40:00,17.0,8.9,30.12,NW,315,0.0,0.0,70,0.00,,,0.00,WUHU21636XXSP,2013-02-22 00:40:00,
2013-02-21 19:42:00,17.0,8.9,30.12,NW,315,0.0,0.0,70,0.00,,,0.00,WUHU21636XXSP,2013-02-22 00:42:00,
2013-02-21 19:44:00,17.0,8.9,30.12,NW,315,0.0,0.0,70,0.00,,,0.00,WUHU21636XXSP,2013-02-22 00:44:00,
2013-02-21 19:45:00,17.0,8.9,30.12,NW,315,0.0,0.0,70,0.00,,,0.00,WUHU21636XXSP,2013-02-22 00:45:00,
2013-02-21 19:47:00,17.0,8.9,30.12,NW,315,0.0,0.0,70,0.00,,,0.00,WUHU21636XXSP,2013-02-22 00:47:00,
2013-02-21 19:49:00,17.0,8.9,30.12,WNW,292,0.0,0.0,70,0.00,,,0.00,WUHU21636XXSP,2013-02-22 00:49:00,
2013-02-21 19:50:00,17.0,8.9,30.12,WNW,292,0.0,0.0,70,0.00,,,0.00,WUHU21636XXSP,2013-02-22 00:50:00,
2013-02-21 19:51:00,16.9,8.9,30.12,West,270,0.0,0.0,70,0.00,,,0.00,WUHU21636XXSP,2013-02-22 00:51:00,
2013-02-21 19:52:00,16.7,8.7,30.12,West,270,0.0,0.0,70,0.00,,,0.00,WUHU21636XXSP,2013-02-22 00:52:00,
2013-02-21 19:54:00,16.7,8.7,30.11,West,270,0.0,0.0,70,0.00,,,0.00,WUHU21636XXSP,2013-02-22 00:54:00,
2013-02-21 19:55:00,16.7,8.7,30.11,West,270,0.0,0.0,70,0.00,,,0.00,WUHU21636XXSP,2013-02-22 00:55:00,
2013-02-21 19:56:00,16.7,8.7,30.12,West,270,0.0,0.0,70,0.00,,,0.00,WUHU21636XXSP,2013-02-22 00:56:00,
2013-02-21 19:57:00,16.7,8.7,30.12,West,270,0.0,0.0,70,0.00,,,0.00,WUHU21636XXSP,2013-02-22 00:57:00,
2013-02-21 19:59:00,16.7,8.7,30.12,WSW,247,0.0,0.0,70,0.00,,,0.00,WUHU21636XXSP,2013-02-22 00:59:00,
2013-02-21 20:00:00,16.7,8.7,30.12,WSW,247,0.0,0.0,70,0.00,,,0.00,WUHU21636XXSP,2013-02-22 01:00:00,
2013-02-21 20:01:00,16.7,8.7,30.12,WSW,247,0.0,0.0,70,0.00,,,0.00,WUHU21636XXSP,2013-02-22 01:01:00,
2013-02-21 20:02:00,16.7,9.0,30.12,West,270,0.0,0.0,71,0.00,,,0.00,WUHU21636XXSP,2013-02-22 01:02:00,
2013-02-21 20:05:00,16.7,9.0,30.12,West,270,0.0,0.0,71,0.00,,,0.00,WUHU21636XXSP,2013-02-22 01:05:00,
2013-02-21 20:06:00,16.7,9.0,30.12,West,270,0.0,0.0,71,0.00,,,0.00,WUHU21636XXSP,2013-02-22 01:06:00,
2013-02-21 20:08:00,16.7,9.0,30.12,West,270,0.0,0.0,71,0.00,,,0.00,WUHU21636XXSP,2013-02-22 01:08:00,
2013-02-21 20:10:00,16.7,9.0,30.13,West,270,0.0,0.0,71,0.00,,,0.00,WUHU21636XXSP,2013-02-22 01:10:00,
2013-02-21 20:11:00,16.7,9.0,30.13,West,270,0.0,0.0,71,0.00,,,0.00,WUHU21636XXSP,2013-02-22 01:11:00,
2013-02-21 20:13:00,16.7,9.0,30.13,West,270,0.0,0.0,71,0.00,,,0.00,WUHU21636XXSP,2013-02-22 01:13:00,
2013-02-21 20:15:00,16.7,9.0,30.13,West,270,0.0,0.0,71,0.00,,,0.00,WUHU21636XXSP,2013-02-22 01:15:00,
2013-02-21 20:16:00,16.7,9.0,30.13,West,270,0.0,0.0,71,0.00,,,0.00,WUHU21636XXSP,2013-02-22 01:16:00,
2013-02-21 20:18:00,16.7,9.3,30.14,West,270,0.0,0.0,72,0.00,,,0.00,WUHU21636XXSP,2013-02-22 01:18:00,
2013-02-21 20:20:00,16.7,9.3,30.14,West,270,0.0,0.0,72,0.00,,,0.00,WUHU21636XXSP,2013-02-22 01:20:00,
2013-02-21 20:21:00,16.7,9.3,30.14,West,270,0.0,0.0,72,0.00,,,0.00,WUHU21636XXSP,2013-02-22 01:21:00,
2013-02-21 20:23:00,16.9,9.5,30.14,West,270,0.0,0.0,72,0.00,,,0.00,WUHU21636XXSP,2013-02-22 01:23:00,
2013-02-21 20:25:00,17.0,9.6,30.15,West,270,0.0,0.0,72,0.00,,,0.00,WUHU21636XXSP,2013-02-22 01:25:00,
2013-02-21 20:26:00,17.0,9.6,30.15,West,270,0.0,0.0,72,0.00,,,0.00,WUHU21636XXSP,2013-02-22 01:26:00,
2013-02-21 20:28:00,17.0,9.6,30.15,West,270,1.1,1.1,72,0.00,,,0.00,WUHU21636XXSP,2013-02-22 01:28:00,
2013-02-21 20:30:00,17.0,9.3,30.15,West,270,0.0,1.1,71,0.00,,,0.00,WUHU21636XXSP,2013-02-22 01:30:00,
2013-02-21 20:31:00,17.0,9.3,30.16,WSW,247,0.0,1.1,71,0.00,,,0.00,WUHU21636XXSP,2013-02-22 01:31:00,
2013-02-21 20:32:00,17.0,9.3,30.16,WSW,247,0.0,1.1,71,0.00,,,0.00,WUHU21636XXSP,2013-02-22 01:32:00,
2013-02-21 20:34:00,17.0,9.3,30.16,WSW,247,0.0,1.1,71,0.00,,,0.00,WUHU21636XXSP,2013-02-22 01:34:00,
2013-02-21 20:35:00,17.0,9.6,30.16,WSW,247,0.0,1.1,72,0.00,,,0.00,WUHU21636XXSP,2013-02-22 01:35:00,
2013-02-21 20:36:00,17.0,9.6,30.16,WSW,247,0.0,1.1,72,0.00,,,0.00,WUHU21636XXSP,2013-02-22 01:36:00,
2013-02-21 20:37:00,17.0,9.6,30.16,WSW,247,0.0,1.1,72,0.00,,,0.00,WUHU21636XXSP,2013-02-22 01:37:00,
2013-02-21 20:39:00,17.0,9.6,30.16,WSW,247,0.0,0.0,72,0.00,,,0.00,WUHU21636XXSP,2013-02-22 01:39:00,
2013-02-21 20:40:00,17.2,9.8,30.17,WSW,247,0.0,0.0,72,0.00,,,0.00,WUHU21636XXSP,2013-02-22 01:40:00,
2013-02-21 20:41:00,17.2,9.8,30.16,WSW,247,0.0,0.0,72,0.00,,,0.00,WUHU21636XXSP,2013-02-22 01:41:00,
2013-02-21 20:42:00,17.2,9.8,30.16,WSW,247,0.0,0.0,72,0.00,,,0.00,WUHU21636XXSP,2013-02-22 01:42:00,
2013-02-21 20:44:00,17.0,9.3,30.16,WSW,247,0.0,0.0,71,0.00,,,0.00,WUHU21636XXSP,2013-02-22 01:44:00,
2013-02-21 20:46:00,17.0,9.3,30.16,WSW,247,0.0,0.0,71,0.00,,,0.00,WUHU21636XXSP,2013-02-22 01:46:00,
2013-02-21 20:47:00,17.2,9.5,30.16,West,270,0.0,0.0,71,0.00,,,0.00,WUHU21636XXSP,2013-02-22 01:47:00,
2013-02-21 20:49:00,17.2,9.8,30.16,NNW,337,0.0,0.0,72,0.00,,,0.00,WUHU21636XXSP,2013-02-22 01:49:00,
2013-02-21 20:51:00,17.2,9.8,30.17,WNW,292,3.8,3.8,72,0.00,,,0.00,WUHU21636XXSP,2013-02-22 01:51:00,
2013-02-21 20:52:00,17.2,9.8,30.17,WNW,292,3.8,3.8,72,0.00,,,0.00,WUHU21636XXSP,2013-02-22 01:52:00,
2013-02-21 20:54:00,17.2,9.5,30.17,WNW,292,0.0,3.8,71,0.00,,,0.00,WUHU21636XXSP,2013-02-22 01:54:00,
2013-02-21 20:56:00,17.0,9.3,30.17,NW,315,0.0,3.8,71,0.00,,,0.00,WUHU21636XXSP,2013-02-22 01:56:00,
2013-02-21 20:57:00,17.2,9.5,30.18,North,0,0.0,3.8,71,0.00,,,0.00,WUHU21636XXSP,2013-02-22 01:57:00,
2013-02-21 20:59:00,17.2,9.8,30.16,North,0,0.0,3.8,72,0.00,,,0.00,WUHU21636XXSP,2013-02-22 01:59:00,
2013-02-21 21:01:00,17.2,9.8,30.17,North,0,0.0,3.8,72,0.00,,,0.00,WUHU21636XXSP,2013-02-22 02:01:00,
2013-02-21 21:02:00,17.2,9.5,30.16,NE,45,0.0,3.8,71,0.00,,,0.00,WUHU21636XXSP,2013-02-22 02:02:00,
2013-02-21 21:03:00,17.2,9.5,30.16,NE,45,0.0,0.0,71,0.00,,,0.00,WUHU21636XXSP,2013-02-22 02:03:00,
2013-02-21 21:04:00,17.0,9.3,30.16,NNW,337,0.0,0.0,71,0.00,,,0.00,WUHU21636XXSP,2013-02-22 02:04:00,
2013-02-21 21:06:00,17.0,9.3,30.18,NW,315,4.6,4.6,71,0.00,,,0.00,WUHU21636XXSP,2013-02-22 02:06:00,
2013-02-21 21:07:00,17.0,9.3,30.18,NW,315,4.6,4.6,71,0.00,,,0.00,WUHU21636XXSP,2013-02-22 02:07:00,
2013-02-21 21:08:00,16.7,9.0,30.18,North,0,0.0,4.6,71,0.00,,,0.00,WUHU21636XXSP,2013-02-22 02:08:00,
2013-02-21 21:09:00,16.7,9.0,30.18,North,0,0.0,4.6,71,0.00,,,0.00,WUHU21636XXSP,2013-02-22 02:09:00,
2013-02-21 21:11:00,16.7,9.0,30.19,NNE,22,0.0,4.6,71,0.00,,,0.00,WUHU21636XXSP,2013-02-22 02:11:00,
2013-02-21 21:13:00,16.7,9.3,30.18,East,90,0.0,4.6,72,0.00,,,0.00,WUHU21636XXSP,2013-02-22 02:13:00,
2013-02-21 21:14:00,16.7,9.3,30.18,ENE,67,0.0,4.6,72,0.00,,,0.00,WUHU21636XXSP,2013-02-22 02:14:00,
2013-02-21 21:16:00,16.7,9.3,30.18,ENE,67,0.0,4.6,72,0.00,,,0.00,WUHU21636XXSP,2013-02-22 02:16:00,
2013-02-21 21:18:00,16.7,9.3,30.18,ENE,67,0.0,0.0,72,0.00,,,0.00,WUHU21636XXSP,2013-02-22 02:18:00,
2013-02-21 21:20:00,16.7,9.3,30.18,NNE,22,0.8,0.8,72,0.00,,,0.00,WUHU21636XXSP,2013-02-22 02:20:00,
2013-02-21 21:21:00,16.7,9.3,30.18,North,0,0.0,0.8,72,0.00,,,0.00,WUHU21636XXSP,2013-02-22 02:21:00,
2013-02-21 21:23:00,16.5,9.1,30.18,NW,315,0.0,0.8,72,0.00,,,0.00,WUHU21636XXSP,2013-02-22 02:23:00,
2013-02-21 21:25:00,16.5,9.1,30.18,NW,315,0.0,0.8,72,0.00,,,0.00,WUHU21636XXSP,2013-02-22 02:25:00,
2013-02-21 21:27:00,16.5,9.1,30.18,North,0,0.0,0.8,72,0.00,,,0.00,WUHU21636XXSP,2013-02-22 02:27:00,
2013-02-21 21:28:00,16.3,8.9,30.18,NW,315,0.0,0.8,72,0.00,,,0.00,WUHU21636XXSP,2013-02-22 02:28:00,
2013-02-21 21:29:00,16.3,8.9,30.19,NW,315,0.0,0.8,72,0.00,,,0.00,WUHU21636XXSP,2013-02-22 02:29:00,
2013-02-21 21:30:00,16.3,8.9,30.19,North,0,0.0,0.8,72,0.00,,,0.00,WUHU21636XXSP,2013-02-22 02:30:00,
2013-02-21 21:32:00,16.3,8.9,30.19,North,0,0.0,0.0,72,0.00,,,0.00,WUHU21636XXSP,2013-02-22 02:32:00,
2013-02-21 21:33:00,16.3,8.9,30.19,North,0,0.0,0.0,72,0.00,,,0.00,WUHU21636XXSP,2013-02-22 02:33:00,
2013-02-21 21:34:00,16.3,8.9,30.19,North,0,0.0,0.0,72,0.00,,,0.00,WUHU21636XXSP,2013-02-22 02:34:00,
2013-02-21 21:35:00,16.3,8.9,30.19,North,0,0.0,0.0,72,0.00,,,0.00,WUHU21636XXSP,2013-02-22 02:35:00,
2013-02-21 21:37:00,16.3,8.9,30.19,WNW,292,0.0,0.0,72,0.00,,,0.00,WUHU21636XXSP,2013-02-22 02:37:00,
2013-02-21 21:38:00,16.3,8.9,30.19,NNE,22,0.0,0.0,72,0.00,,,0.00,WUHU21636XXSP,2013-02-22 02:38:00,
2013-02-21 21:39:00,16.3,8.9,30.19,NNE,22,0.0,0.0,72,0.00,,,0.00,WUHU21636XXSP,2013-02-22 02:39:00,
2013-02-21 21:40:00,16.3,8.9,30.19,NE,45,0.0,0.0,72,0.00,,,0.00,WUHU21636XXSP,2013-02-22 02:40:00,
2013-02-21 21:42:00,16.3,9.2,30.20,NNW,337,0.0,0.0,73,0.00,,,0.00,WUHU21636XXSP,2013-02-22 02:42:00,
2013-02-21 21:43:00,16.3,9.2,30.20,NNW,337,0.0,0.0,73,0.00,,,0.00,WUHU21636XXSP,2013-02-22 02:43:00,
2013-02-21 21:44:00,16.3,9.2,30.20,NNW,337,0.0,0.0,73,0.00,,,0.00,WUHU21636XXSP,2013-02-22 02:44:00,
2013-02-21 21:45:00,16.3,9.2,30.20,WNW,292,0.0,0.0,73,0.00,,,0.00,WUHU21636XXSP,2013-02-22 02:45:00,
2013-02-21 21:47:00,16.1,9.0,30.20,NE,45,4.0,4.0,73,0.00,,,0.00,WUHU21636XXSP,2013-02-22 02:47:00,
2013-02-21 21:48:00,16.1,9.0,30.20,NE,45,4.0,4.0,73,0.00,,,0.00,WUHU21636XXSP,2013-02-22 02:48:00,
2013-02-21 21:49:00,16.1,9.0,30.20,NNE,22,0.0,4.0,73,0.00,,,0.00,WUHU21636XXSP,2013-02-22 02:49:00,
2013-02-21 21:50:00,16.1,9.0,30.20,NNE,22,0.0,4.0,73,0.00,,,0.00,WUHU21636XXSP,2013-02-22 02:50:00,
2013-02-21 21:52:00,16.1,9.0,30.20,NNE,22,0.0,4.0,73,0.00,,,0.00,WUHU21636XXSP,2013-02-22 02:52:00,
2013-02-21 21:53:00,16.1,9.0,30.20,NNE,22,0.0,4.0,73,0.00,,,0.00,WUHU21636XXSP,2013-02-22 02:53:00,
2013-02-21 21:54:00,16.1,9.0,30.21,NNE,22,0.0,4.0,73,0.00,,,0.00,WUHU21636XXSP,2013-02-22 02:54:00,
2013-02-21 21:55:00,16.1,9.0,30.21,NNE,22,0.0,4.0,73,0.00,,,0.00,WUHU21636XXSP,2013-02-22 02:55:00,
2013-02-21 21:57:00,16.1,9.0,30.21,NNE,22,0.0,4.0,73,0.00,,,0.00,WUHU21636XXSP,2013-02-22 02:57:00,
2013-02-21 21:58:00,16.1,9.0,30.21,NNE,22,0.0,0.0,73,0.00,,,0.00,WUHU21636XXSP,2013-02-22 02:58:00,
2013-02-21 21:59:00,16.1,9.0,30.21,NNE,22,0.0,0.0,73,0.00,,,0.00,WUHU21636XXSP,2013-02-22 02:59:00,
2013-02-21 22:01:00,16.1,9.0,30.21,NNE,22,0.0,0.0,73,0.00,,,0.00,WUHU21636XXSP,2013-02-22 03:01:00,
2013-02-21 22:03:00,16.1,9.0,30.21,NNW,337,0.0,0.0,73,0.00,,,0.00,WUHU21636XXSP,2013-02-22 03:03:00,
2013-02-21 22:04:00,16.1,9.0,30.21,NW,315,2.2,2.2,73,0.00,,,0.00,WUHU21636XXSP,2013-02-22 03:04:00,
2013-02-21 22:06:00,16.1,9.0,30.21,NW,315,2.2,2.2,73,0.00,,,0.00,WUHU21636XXSP,2013-02-22 03:06:00,
2013-02-21 22:08:00,16.0,8.9,30.21,NNW,337,0.0,2.2,73,0.00,,,0.00,WUHU21636XXSP,2013-02-22 03:08:00,
2013-02-21 22:09:00,16.0,8.9,30.21,NE,45,0.8,2.2,73,0.00,,,0.00,WUHU21636XXSP,2013-02-22 03:09:00,
2013-02-21 22:11:00,16.0,8.9,30.21,WNW,292,0.0,2.2,73,0.00,,,0.00,WUHU21636XXSP,2013-02-22 03:11:00,
2013-02-21 22:13:00,15.8,8.7,30.21,NNE,22,2.2,2.2,73,0.00,,,0.00,WUHU21636XXSP,2013-02-22 03:13:00,
2013-02-21 22:14:00,15.8,8.7,30.21,NNE,22,2.2,2.2,73,0.00,,,0.00,WUHU21636XXSP,2013-02-22 03:14:00,
2013-02-21 22:15:00,15.8,8.7,30.22,North,0,0.0,2.2,73,0.00,,,0.00,WUHU21636XXSP,2013-02-22 03:15:00,
2013-02-21 22:16:00,15.8,8.7,30.22,North,0,0.0,2.2,73,0.00,,,0.00,WUHU21636XXSP,2013-02-22 03:16:00,
2013-02-21 22:18:00,16.0,9.2,30.22,NNE,22,0.0,2.2,74,0.00,,,0.00,WUHU21636XXSP,2013-02-22 03:18:00,
2013-02-21 22:19:00,16.0,9.2,30.22,NNE,22,3.1,3.1,74,0.00,,,0.00,WUHU21636XXSP,2013-02-22 03:19:00,
2013-02-21 22:20:00,16.0,9.2,30.22,NNE,22,3.1,3.1,74,0.00,,,0.00,WUHU21636XXSP,2013-02-22 03:20:00,
2013-02-21 22:21:00,16.0,9.2,30.22,ENE,67,3.3,3.3,74,0.00,,,0.00,WUHU21636XXSP,2013-02-22 03:21:00,
2013-02-21 22:23:00,16.0,9.2,30.23,East,90,0.0,3.3,74,0.00,,,0.00,WUHU21636XXSP,2013-02-22 03:23:00,
2013-02-21 22:24:00,16.0,9.2,30.23,East,90,0.0,3.3,74,0.00,,,0.00,WUHU21636XXSP,2013-02-22 03:24:00,
2013-02-21 22:25:00,16.0,9.2,30.23,East,90,0.0,3.3,74,0.00,,,0.00,WUHU21636XXSP,2013-02-22 03:25:00,
2013-02-21 22:26:00,16.0,9.2,30.24,NE,45,0.0,3.3,74,0.00,,,0.00,WUHU21636XXSP,2013-02-22 03:26:00,
2013-02-21 22:28:00,16.0,9.2,30.24,NE,45,3.1,3.3,74,0.00,,,0.00,WUHU21636XXSP,2013-02-22 03:28:00,
2013-02-21 22:29:00,16.0,9.2,30.24,NE,45,3.1,3.3,74,0.00,,,0.00,WUHU21636XXSP,2013-02-22 03:29:00,
2013-02-21 22:30:00,15.8,9.0,30.24,NE,45,3.5,3.5,74,0.00,,,0.00,WUHU21636XXSP,2013-02-22 03:30:00,
2013-02-21 22:31:00,15.8,9.0,30.24,NE,45,3.5,3.5,74,0.00,,,0.00,WUHU21636XXSP,2013-02-22 03:31:00,
2013-02-21 22:33:00,15.6,8.8,30.24,East,90,0.0,3.5,74,0.00,,,0.00,WUHU21636XXSP,2013-02-22 03:33:00,
2013-02-21 22:34:00,15.6,9.1,30.24,NW,315,0.0,3.5,75,0.00,,,0.00,WUHU21636XXSP,2013-02-22 03:34:00,
2013-02-21 22:35:00,15.6,9.1,30.24,NW,315,0.0,3.5,75,0.00,,,0.00,WUHU21636XXSP,2013-02-22 03:35:00,
2013-02-21 22:37:00,15.6,9.1,30.24,NE,45,0.0,3.5,75,0.00,,,0.00,WUHU21636XXSP,2013-02-22 03:37:00,
2013-02-21 22:38:00,15.6,9.1,30.24,ENE,67,0.0,3.5,75,0.00,,,0.00,WUHU21636XXSP,2013-02-22 03:38:00,
2013-02-21 22:39:00,15.6,9.1,30.24,ENE,67,0.0,3.5,75,0.00,,,0.00,WUHU21636XXSP,2013-02-22 03:39:00,
2013-02-21 22:40:00,15.8,9.3,30.24,ENE,67,0.0,3.5,75,0.00,,,0.00,WUHU21636XXSP,2013-02-22 03:40:00,
2013-02-21 22:42:00,15.8,9.3,30.24,ENE,67,0.0,0.0,75,0.00,,,0.00,WUHU21636XXSP,2013-02-22 03:42:00,
2013-02-21 22:43:00,15.6,9.1,30.24,ESE,112,0.0,0.0,75,0.00,,,0.00,WUHU21636XXSP,2013-02-22 03:43:00,
2013-02-21 22:44:00,15.6,9.1,30.24,ESE,112,0.0,0.0,75,0.00,,,0.00,WUHU21636XXSP,2013-02-22 03:44:00,
2013-02-21 22:45:00,15.8,9.3,30.25,East,90,0.0,0.0,75,0.00,,,0.00,WUHU21636XXSP,2013-02-22 03:45:00,
2013-02-21 22:46:00,15.8,9.3,30.25,East,90,0.0,0.0,75,0.00,,,0.00,WUHU21636XXSP,2013-02-22 03:46:00,
2013-02-21 22:49:00,15.8,9.3,30.25,SW,225,0.0,0.0,75,0.00,,,0.00,WUHU21636XXSP,2013-02-22 03:49:00,
2013-02-21 22:50:00,15.6,9.1,30.25,ESE,112,0.0,0.0,75,0.00,,,0.00,WUHU21636XXSP,2013-02-22 03:50:00,
2013-02-21 22:52:00,15.6,9.1,30.26,East,90,0.0,0.0,75,0.00,,,0.00,WUHU21636XXSP,2013-02-22 03:52:00,
2013-02-21 22:54:00,15.6,9.1,30.26,NNW,337,0.0,0.0,75,0.00,,,0.00,WUHU21636XXSP,2013-02-22 03:54:00,
2013-02-21 22:55:00,15.6,9.1,30.26,NNW,337,0.0,0.0,75,0.00,,,0.00,WUHU21636XXSP,2013-02-22 03:55:00,
2013-02-21 22:57:00,15.6,9.1,30.26,NNW,337,0.0,0.0,75,0.00,,,0.00,WUHU21636XXSP,2013-02-22 03:57:00,
2013-02-21 22:59:00,15.6,9.1,30.26,NW,315,2.0,2.0,75,0.00,,,0.00,WUHU21636XXSP,2013-02-22 03:59:00,
2013-02-21 23:00:00,15.4,8.9,30.26,WNW,292,0.0,2.0,75,0.00,,,0.00,WUHU21636XXSP,2013-02-22 04:00:00,
2013-02-21 23:03:00,15.6,9.1,30.26,WNW,292,0.0,2.0,75,0.00,,,0.00,WUHU21636XXSP,2013-02-22 04:03:00,
2013-02-21 23:05:00,15.4,8.9,30.26,West,270,0.0,2.0,75,0.00,,,0.00,WUHU21636XXSP,2013-02-22 04:05:00,
2013-02-21 23:08:00,15.4,8.9,30.26,WNW,292,0.0,2.0,75,0.00,,,0.00,WUHU21636XXSP,2013-02-22 04:08:00,
2013-02-21 23:10:00,15.4,8.9,30.26,WSW,247,0.0,0.0,75,0.00,,,0.00,WUHU21636XXSP,2013-02-22 04:10:00,
2013-02-21 23:11:00,15.4,8.9,30.26,WSW,247,0.0,0.0,75,0.00,,,0.00,WUHU21636XXSP,2013-02-22 04:11:00,
2013-02-21 23:13:00,15.4,8.9,30.26,WSW,247,0.0,0.0,75,0.00,,,0.00,WUHU21636XXSP,2013-02-22 04:13:00,
2013-02-21 23:15:00,15.6,9.4,30.26,WNW,292,0.0,0.0,76,0.00,,,0.00,WUHU21636XXSP,2013-02-22 04:15:00,
2013-02-21 23:16:00,15.6,9.4,30.26,WNW,292,0.0,0.0,76,0.00,,,0.00,WUHU21636XXSP,2013-02-22 04:16:00,
2013-02-21 23:18:00,15.6,9.4,30.26,WNW,292,0.0,0.0,76,0.00,,,0.00,WUHU21636XXSP,2013-02-22 04:18:00,
2013-02-21 23:20:00,15.8,9.6,30.26,WNW,292,0.0,0.0,76,0.00,,,0.00,WUHU21636XXSP,2013-02-22 04:20:00,
2013-02-21 23:21:00,15.8,9.6,30.26,WNW,292,0.0,0.0,76,0.00,,,0.00,WUHU21636XXSP,2013-02-22 04:21:00,
2013-02-21 23:23:00,15.8,9.6,30.26,WNW,292,0.0,0.0,76,0.00,,,0.00,WUHU21636XXSP,2013-02-22 04:23:00,
2013-02-21 23:25:00,15.8,9.6,30.26,WNW,292,0.0,0.0,76,0.00,,,0.00,WUHU21636XXSP,2013-02-22 04:25:00,
2013-02-21 23:26:00,15.8,9.6,30.26,WNW,292,0.0,0.0,76,0.00,,,0.00,WUHU21636XXSP,2013-02-22 04:26:00,
2013-02-21 23:28:00,15.8,9.3,30.26,WNW,292,0.0,0.0,75,0.00,,,0.00,WUHU21636XXSP,2013-02-22 04:28:00,
2013-02-21 23:30:00,16.0,9.5,30.27,WNW,292,0.0,0.0,75,0.00,,,0.00,WUHU21636XXSP,2013-02-22 04:30:00,
2013-02-21 23:31:00,16.0,9.5,30.27,WNW,292,0.0,0.0,75,0.00,,,0.00,WUHU21636XXSP,2013-02-22 04:31:00,
2013-02-21 23:33:00,16.0,9.5,30.26,WNW,292,0.0,0.0,75,0.00,,,0.00,WUHU21636XXSP,2013-02-22 04:33:00,
2013-02-21 23:35:00,16.0,9.5,30.26,WNW,292,0.0,0.0,75,0.00,,,0.00,WUHU21636XXSP,2013-02-22 04:35:00,
2013-02-21 23:36:00,16.0,9.8,30.27,WNW,292,0.0,0.0,76,0.00,,,0.00,WUHU21636XXSP,2013-02-22 04:36:00,
2013-02-21 23:37:00,16.0,9.8,30.27,WNW,292,0.0,0.0,76,0.00,,,0.00,WUHU21636XXSP,2013-02-22 04:37:00,
2013-02-21 23:39:00,16.0,9.8,30.26,WNW,292,0.0,0.0,76,0.00,,,0.00,WUHU21636XXSP,2013-02-22 04:39:00,
2013-02-21 23:40:00,16.0,9.8,30.27,WNW,292,0.0,0.0,76,0.00,,,0.00,WUHU21636XXSP,2013-02-22 04:40:00,
2013-02-21 23:42:00,16.0,9.8,30.26,WNW,292,0.0,0.0,76,0.00,,,0.00,WUHU21636XXSP,2013-02-22 04:42:00,
2013-02-21 23:44:00,16.0,9.8,30.26,WNW,292,0.0,0.0,76,0.00,,,0.00,WUHU21636XXSP,2013-02-22 04:44:00,
2013-02-21 23:45:00,16.0,9.5,30.27,WNW,292,0.0,0.0,75,0.00,,,0.00,WUHU21636XXSP,2013-02-22 04:45:00,
2013-02-21 23:46:00,16.0,9.5,30.27,WNW,292,0.0,0.0,75,0.00,,,0.00,WUHU21636XXSP,2013-02-22 04:46:00,
2013-02-21 23:47:00,16.0,9.5,30.27,WNW,292,0.0,0.0,75,0.00,,,0.00,WUHU21636XXSP,2013-02-22 04:47:00,
2013-02-21 23:49:00,16.0,9.5,30.28,WNW,292,0.0,0.0,75,0.00,,,0.00,WUHU21636XXSP,2013-02-22 04:49:00,
2013-02-21 23:50:00,16.0,9.5,30.28,WNW,292,0.0,0.0,75,0.00,,,0.00,WUHU21636XXSP,2013-02-22 04:50:00,
2013-02-21 23:52:00,16.0,9.5,30.28,WNW,292,0.0,0.0,75,0.00,,,0.00,WUHU21636XXSP,2013-02-22 04:52:00,
2013-02-21 23:54:00,16.0,9.5,30.28,WNW,292,0.0,0.0,75,0.00,,,0.00,WUHU21636XXSP,2013-02-22 04:54:00,
2013-02-21 23:56:00,16.0,9.5,30.28,WNW,292,0.0,0.0,75,0.00,,,0.00,WUHU21636XXSP,2013-02-22 04:56:00,
2013-02-21 23:57:00,16.0,9.5,30.28,WNW,292,0.0,0.0,75,0.00,,,0.00,WUHU21636XXSP,2013-02-22 04:57:00,
2013-02-21 23:59:00,16.0,9.8,30.27,WNW,292,0.0,0.0,76,0.00,,,0.00,WUHU21636XXSP,2013-02-22 04:59:00,